| time (UTC) | temp F | wind direction | speed MPH | gust MPH | rain 1hr in | rain 24hr in | rain mn in | humidity % | barometer mb |
| 20260502181701 | 64 | 65 | 0.0 | 1.0 | 0.00 | 0.00 | 0.00 | 37 | 941.2 |
| 20260502181601 | 64 | 71 | 0.0 | 1.0 | 0.00 | 0.00 | 0.00 | 37 | 941.2 |
| 20260502181500 | 64 | 66 | 0.0 | 1.0 | 0.00 | 0.00 | 0.00 | 37 | 941.2 |
| 20260502181401 | 64 | 68 | 0.0 | 1.0 | 0.00 | 0.00 | 0.00 | 37 | 941.4 |
| 20260502181301 | 64 | 85 | 0.0 | 1.0 | 0.00 | 0.00 | 0.00 | 37 | 941.4 |
| 20260502181200 | 64 | 75 | 0.0 | 1.0 | 0.00 | 0.00 | 0.00 | 37 | 941.3 |
| 20260502181101 | 64 | 69 | 0.0 | 1.0 | 0.00 | 0.00 | 0.00 | 37 | 941.3 |
| 20260502181001 | 64 | 78 | 0.0 | 1.0 | 0.00 | 0.00 | 0.00 | 37 | 941.2 |
| 20260502180901 | 64 | 80 | 0.0 | 1.0 | 0.00 | 0.00 | 0.00 | 37 | 941.3 |
| 20260502180801 | 64 | 68 | 0.0 | 1.0 | 0.00 | 0.00 | 0.00 | 37 | 941.3 |
| 20260502180700 | 65 | 66 | 0.0 | 1.0 | 0.00 | 0.00 | 0.00 | 37 | 941.2 |
| 20260502180600 | 64 | 72 | 1.0 | 1.0 | 0.00 | 0.00 | 0.00 | 37 | 941.3 |
| 20260502180503 | 64 | 74 | 1.0 | 1.0 | 0.00 | 0.00 | 0.00 | 37 | 941.1 |
| 20260502180401 | 64 | 74 | 0.0 | 1.0 | 0.00 | 0.00 | 0.00 | 37 | 941.5 |
| 20260502180301 | 64 | 72 | 1.0 | 1.0 | 0.00 | 0.00 | 0.00 | 37 | 941.4 |
| 20260502180201 | 64 | 69 | 0.0 | 1.0 | 0.00 | 0.00 | 0.00 | 37 | 941.5 |
| 20260502170501 | 66 | 54 | 1.0 | 1.0 | 0.00 | 0.00 | 0.00 | 41 | 941.3 |
| 20260502170401 | 66 | 51 | 1.0 | 2.0 | 0.00 | 0.00 | 0.00 | 42 | 941.5 |
| 20260502170301 | 66 | 57 | 1.0 | 2.0 | 0.00 | 0.00 | 0.00 | 40 | 941.6 |
| 20260502170201 | 66 | 56 | 1.0 | 2.0 | 0.00 | 0.00 | 0.00 | 41 | 941.6 |
| 20260502164300 | 67 | 80 | 1.0 | 1.0 | 0.00 | 0.00 | 0.00 | 42 | 941.5 |
| 20260502164201 | 67 | 91 | 0.0 | 1.0 | 0.00 | 0.00 | 0.00 | 43 | 941.6 |
| 20260502164101 | 67 | 117 | 1.0 | 1.0 | 0.00 | 0.00 | 0.00 | 41 | 941.6 |
| 20260502164001 | 67 | 73 | 1.0 | 2.0 | 0.00 | 0.00 | 0.00 | 39 | 941.6 |
| 20260502163902 | 68 | 127 | 1.0 | 2.0 | 0.00 | 0.00 | 0.00 | 38 | 941.7 |
| 20260502163802 | 68 | 106 | 1.0 | 2.0 | 0.00 | 0.00 | 0.00 | 43 | 941.6 |
| 20260502163700 | 68 | 80 | 1.0 | 2.0 | 0.00 | 0.00 | 0.00 | 40 | 941.7 |
| 20260502163601 | 68 | 91 | 1.0 | 1.0 | 0.00 | 0.00 | 0.00 | 41 | 941.7 |
| 20260502163501 | 67 | 52 | 1.0 | 1.0 | 0.00 | 0.00 | 0.00 | 43 | 941.7 |
| 20260502163401 | 67 | 94 | 1.0 | 1.0 | 0.00 | 0.00 | 0.00 | 40 | 941.7 |
| 20260502163301 | 67 | 63 | 0.0 | 1.0 | 0.00 | 0.00 | 0.00 | 42 | 941.8 |
| 20260502163201 | 68 | 59 | 1.0 | 1.0 | 0.00 | 0.00 | 0.00 | 41 | 941.7 |
| 20260502163101 | 68 | 59 | 0.0 | 1.0 | 0.00 | 0.00 | 0.00 | 42 | 941.8 |
| 20260502163002 | 68 | 111 | 1.0 | 1.0 | 0.00 | 0.00 | 0.00 | 39 | 941.6 |
| 20260502162902 | 68 | 82 | 1.0 | 1.0 | 0.00 | 0.00 | 0.00 | 39 | 941.9 |
| 20260502162801 | 68 | 99 | 1.0 | 1.0 | 0.00 | 0.00 | 0.00 | 39 | 941.8 |
| 20260502162708 | 68 | 99 | 1.0 | 1.0 | 0.00 | 0.00 | 0.00 | 39 | 941.8 |
| 20260502162601 | 68 | 110 | 1.0 | 1.0 | 0.00 | 0.00 | 0.00 | 39 | 941.7 |
| 20260502162501 | 68 | 102 | 0.0 | 1.0 | 0.00 | 0.00 | 0.00 | 39 | 941.9 |
| 20260502162401 | 68 | 72 | 0.0 | 1.0 | 0.00 | 0.00 | 0.00 | 39 | 941.8 |
| 20260502162304 | 68 | 55 | 1.0 | 1.0 | 0.00 | 0.00 | 0.00 | 38 | 941.7 |
| 20260502162201 | 68 | 57 | 0.0 | 1.0 | 0.00 | 0.00 | 0.00 | 38 | 941.8 |
| 20260502162101 | 68 | 60 | 1.0 | 1.0 | 0.00 | 0.00 | 0.00 | 40 | 941.6 |
| 20260502162002 | 68 | 66 | 1.0 | 1.0 | 0.00 | 0.00 | 0.00 | 39 | 941.9 |
| 20260502161901 | 68 | 114 | 1.0 | 1.0 | 0.00 | 0.00 | 0.00 | 39 | 942.0 |
| 20260502161802 | 68 | 115 | 1.0 | 1.0 | 0.00 | 0.00 | 0.00 | 37 | 941.8 |
| 20260502161701 | 68 | 129 | 0.0 | 1.0 | 0.00 | 0.00 | 0.00 | 37 | 941.8 |
| 20260502161601 | 68 | 90 | 0.0 | 1.0 | 0.00 | 0.00 | 0.00 | 36 | 942.2 |
| 20260502161501 | 68 | 155 | 0.0 | 1.0 | 0.00 | 0.00 | 0.00 | 36 | 941.9 |
| 20260502161401 | 68 | 152 | 0.0 | 1.0 | 0.00 | 0.00 | 0.00 | 35 | 942.0 |
| 20260502161307 | 68 | 181 | 1.0 | 1.0 | 0.00 | 0.00 | 0.00 | 34 | 941.7 |
| 20260502161201 | 68 | 155 | 1.0 | 1.0 | 0.00 | 0.00 | 0.00 | 38 | 942.0 |
| 20260502161102 | 68 | 125 | 1.0 | 1.0 | 0.00 | 0.00 | 0.00 | 38 | 942.0 |
| 20260502161001 | 68 | 174 | 1.0 | 1.0 | 0.00 | 0.00 | 0.00 | 40 | 941.9 |
| 20260502160901 | 68 | 163 | 1.0 | 1.0 | 0.00 | 0.00 | 0.00 | 37 | 942.0 |
| 20260502160801 | 68 | 161 | 0.0 | 1.0 | 0.00 | 0.00 | 0.00 | 37 | 942.1 |
| 20260502160701 | 68 | 131 | 0.0 | 1.0 | 0.00 | 0.00 | 0.00 | 36 | 942.0 |
| 20260502160602 | 68 | 110 | 0.0 | 0.0 | 0.00 | 0.00 | 0.00 | 35 | 941.9 |
| 20260502160501 | 68 | 110 | 0.0 | 1.0 | 0.00 | 0.00 | 0.00 | 36 | 942.2 |
| 20260502160401 | 68 | 139 | 0.0 | 1.0 | 0.00 | 0.00 | 0.00 | 36 | 942.0 |
| 20260502160302 | 68 | 89 | 0.0 | 1.0 | 0.00 | 0.00 | 0.00 | 36 | 942.1 |
| 20260502160201 | 68 | 82 | 0.0 | 1.0 | 0.00 | 0.00 | 0.00 | 35 | 942.0 |
| 20260502152305 | 69 | 186 | 1.0 | 1.0 | 0.00 | 0.00 | 0.00 | 34 | 942.5 |
| 20260502152201 | 69 | 254 | 0.0 | 1.0 | 0.00 | 0.00 | 0.00 | 33 | 942.7 |
| 20260502152101 | 69 | 281 | 1.0 | 2.0 | 0.00 | 0.00 | 0.00 | 33 | 942.8 |
| 20260502152000 | 69 | 247 | 1.0 | 2.0 | 0.00 | 0.00 | 0.00 | 33 | 942.6 |
| 20260502151901 | 69 | 260 | 1.0 | 1.0 | 0.00 | 0.00 | 0.00 | 34 | 942.7 |
| 20260502151802 | 69 | 247 | 1.0 | 1.0 | 0.00 | 0.00 | 0.00 | 35 | 942.6 |
| 20260502151701 | 69 | 214 | 0.0 | 1.0 | 0.00 | 0.00 | 0.00 | 32 | 942.6 |
| 20260502151601 | 69 | 223 | 1.0 | 1.0 | 0.00 | 0.00 | 0.00 | 32 | 942.6 |
| 20260502151500 | 69 | 276 | 0.0 | 0.0 | 0.00 | 0.00 | 0.00 | 34 | 942.6 |
| 20260502151402 | 69 | 168 | 0.0 | 0.0 | 0.00 | 0.00 | 0.00 | 34 | 942.6 |
| 20260502151301 | 69 | 168 | 0.0 | 0.0 | 0.00 | 0.00 | 0.00 | 34 | 942.7 |
| 20260502151202 | 69 | 166 | 0.0 | 0.0 | 0.00 | 0.00 | 0.00 | 33 | 942.7 |
| 20260502151101 | 69 | 166 | 0.0 | 0.0 | 0.00 | 0.00 | 0.00 | 33 | 942.5 |
| 20260502151001 | 69 | 167 | 0.0 | 2.0 | 0.00 | 0.00 | 0.00 | 34 | 942.8 |
| 20260502150901 | 69 | 191 | 1.0 | 2.0 | 0.00 | 0.00 | 0.00 | 35 | 942.6 |
| 20260502150800 | 68 | 195 | 1.0 | 1.0 | 0.00 | 0.00 | 0.00 | 37 | 942.5 |
| 20260502150701 | 68 | 186 | 1.0 | 1.0 | 0.00 | 0.00 | 0.00 | 34 | 942.7 |
| 20260502150601 | 68 | 176 | 0.0 | 2.0 | 0.00 | 0.00 | 0.00 | 33 | 942.9 |
| 20260502150501 | 69 | 188 | 1.0 | 2.0 | 0.00 | 0.00 | 0.00 | 34 | 942.8 |
| 20260502150401 | 68 | 204 | 1.0 | 2.0 | 0.00 | 0.00 | 0.00 | 33 | 942.8 |
| 20260502150302 | 68 | 233 | 1.0 | 2.0 | 0.00 | 0.00 | 0.00 | 35 | 942.8 |
| 20260502150200 | 69 | 212 | 1.0 | 2.0 | 0.00 | 0.00 | 0.00 | 34 | 943.0 |
| 20260502130701 | 69 | 184 | 1.0 | 3.0 | 0.00 | 0.00 | 0.00 | 37 | 943.8 |
| 20260502130601 | 69 | 189 | 2.0 | 3.0 | 0.00 | 0.00 | 0.00 | 33 | 943.8 |
| 20260502130502 | 69 | 209 | 2.0 | 3.0 | 0.00 | 0.00 | 0.00 | 34 | 943.8 |
| 20260502130401 | 69 | 202 | 1.0 | 2.0 | 0.00 | 0.00 | 0.00 | 38 | 943.7 |
| 20260502130300 | 68 | 168 | 1.0 | 1.0 | 0.00 | 0.00 | 0.00 | 35 | 944.0 |
| 20260502130201 | 68 | 200 | 1.0 | 1.0 | 0.00 | 0.00 | 0.00 | 38 | 943.7 |
| 20260502123800 | 70 | 180 | 1.0 | 2.0 | 0.00 | 0.00 | 0.00 | 35 | 944.1 |
| 20260502123701 | 71 | 215 | 2.0 | 2.0 | 0.00 | 0.00 | 0.00 | 32 | 943.9 |
| 20260502123601 | 71 | 186 | 2.0 | 2.0 | 0.00 | 0.00 | 0.00 | 37 | 944.1 |
| 20260502123501 | 71 | 177 | 2.0 | 2.0 | 0.00 | 0.00 | 0.00 | 36 | 944.1 |
| 20260502123401 | 71 | 238 | 1.0 | 1.0 | 0.00 | 0.00 | 0.00 | 34 | 944.0 |
| 20260502123301 | 70 | 239 | 0.0 | 1.0 | 0.00 | 0.00 | 0.00 | 35 | 944.3 |
| 20260502123203 | 70 | 303 | 0.0 | 1.0 | 0.00 | 0.00 | 0.00 | 36 | 944.3 |
| 20260502123101 | 69 | 299 | 1.0 | 1.0 | 0.00 | 0.00 | 0.00 | 36 | 944.1 |
| 20260502123001 | 69 | 300 | 1.0 | 1.0 | 0.00 | 0.00 | 0.00 | 37 | 944.4 |
| 20260502122901 | 69 | 329 | 1.0 | 1.0 | 0.00 | 0.00 | 0.00 | 38 | 944.5 |
| 20260502122801 | 68 | 221 | 0.0 | 1.0 | 0.00 | 0.00 | 0.00 | 34 | 944.2 |
| 20260502122701 | 68 | 235 | 0.0 | 1.0 | 0.00 | 0.00 | 0.00 | 39 | 944.1 |
| 20260502122601 | 67 | 280 | 0.0 | 2.0 | 0.00 | 0.00 | 0.00 | 38 | 944.5 |
| 20260502122501 | 67 | 291 | 1.0 | 2.0 | 0.00 | 0.00 | 0.00 | 36 | 944.5 |
| 20260502122401 | 67 | 291 | 1.0 | 2.0 | 0.00 | 0.00 | 0.00 | 36 | 944.5 |
| 20260502122301 | 67 | 334 | 1.0 | 2.0 | 0.00 | 0.00 | 0.00 | 36 | 944.2 |
| 20260502122201 | 67 | 334 | 1.0 | 1.0 | 0.00 | 0.00 | 0.00 | 35 | 944.5 |
| 20260502122103 | 67 | 272 | 1.0 | 2.0 | 0.00 | 0.00 | 0.00 | 35 | 944.4 |
| 20260502122000 | 67 | 242 | 1.0 | 4.0 | 0.00 | 0.00 | 0.00 | 35 | 944.3 |
| 20260502121901 | 68 | 192 | 3.0 | 3.0 | 0.00 | 0.00 | 0.00 | 36 | 944.4 |
| 20260502121801 | 68 | 208 | 2.0 | 3.0 | 0.00 | 0.00 | 0.00 | 36 | 944.2 |
| 20260502121702 | 68 | 217 | 2.0 | 3.0 | 0.00 | 0.00 | 0.00 | 34 | 944.4 |
| 20260502121601 | 68 | 223 | 2.0 | 3.0 | 0.00 | 0.00 | 0.00 | 37 | 944.3 |
| 20260502121501 | 68 | 191 | 2.0 | 3.0 | 0.00 | 0.00 | 0.00 | 39 | 944.4 |
| 20260502121401 | 68 | 304 | 1.0 | 1.0 | 0.00 | 0.00 | 0.00 | 35 | 944.4 |
| 20260502121301 | 67 | 214 | 0.0 | 1.0 | 0.00 | 0.00 | 0.00 | 35 | 944.4 |
| 20260502121201 | 67 | 198 | 1.0 | 1.0 | 0.00 | 0.00 | 0.00 | 37 | 944.3 |
| 20260502121101 | 67 | 191 | 1.0 | 2.0 | 0.00 | 0.00 | 0.00 | 38 | 944.4 |
| 20260502121004 | 67 | 215 | 1.0 | 4.0 | 0.00 | 0.00 | 0.00 | 35 | 944.3 |
| 20260502120901 | 67 | 173 | 3.0 | 4.0 | 0.00 | 0.00 | 0.00 | 36 | 944.6 |
| 20260502120801 | 67 | 178 | 2.0 | 2.0 | 0.00 | 0.00 | 0.00 | 36 | 944.4 |
| 20260502120702 | 67 | 200 | 1.0 | 2.0 | 0.00 | 0.00 | 0.00 | 36 | 944.5 |
| 20260502120601 | 67 | 208 | 1.0 | 3.0 | 0.00 | 0.00 | 0.00 | 35 | 944.3 |
| 20260502120501 | 67 | 215 | 2.0 | 3.0 | 0.00 | 0.00 | 0.00 | 36 | 944.6 |
| 20260502120401 | 67 | 200 | 2.0 | 3.0 | 0.00 | 0.00 | 0.00 | 37 | 944.4 |
| 20260502120301 | 67 | 196 | 1.0 | 3.0 | 0.00 | 0.00 | 0.00 | 37 | 944.4 |
| 20260502120200 | 68 | 203 | 2.0 | 3.0 | 0.00 | 0.00 | 0.00 | 36 | 944.5 |
| 20260502115902 | 67 | 189 | 1.0 | 2.0 | 0.00 | 0.00 | 0.00 | 39 | 944.7 |
| 20260502115802 | 67 | 104 | 0.0 | 1.0 | 0.00 | 0.00 | 0.00 | 36 | 944.8 |
| 20260502115701 | 67 | 334 | 0.0 | 2.0 | 0.00 | 0.00 | 0.00 | 37 | 944.5 |
| 20260502115601 | 67 | 104 | 0.0 | 3.0 | 0.00 | 0.00 | 0.00 | 35 | 944.5 |
| 20260502115501 | 67 | 171 | 2.0 | 3.0 | 0.00 | 0.00 | 0.00 | 37 | 944.7 |
| 20260502115401 | 67 | 166 | 2.0 | 3.0 | 0.00 | 0.00 | 0.00 | 41 | 944.6 |
| 20260502115301 | 67 | 155 | 2.0 | 3.0 | 0.00 | 0.00 | 0.00 | 37 | 944.4 |
| 20260502115201 | 67 | 180 | 1.0 | 3.0 | 0.00 | 0.00 | 0.00 | 37 | 944.5 |
| 20260502115101 | 67 | 217 | 2.0 | 3.0 | 0.00 | 0.00 | 0.00 | 35 | 944.6 |
| 20260502115002 | 67 | 208 | 2.0 | 3.0 | 0.00 | 0.00 | 0.00 | 36 | 944.6 |
| 20260502114901 | 67 | 227 | 3.0 | 3.0 | 0.00 | 0.00 | 0.00 | 37 | 944.5 |
| 20260502114801 | 67 | 220 | 1.0 | 4.0 | 0.00 | 0.00 | 0.00 | 39 | 944.6 |
| 20260502114701 | 67 | 184 | 2.0 | 3.0 | 0.00 | 0.00 | 0.00 | 35 | 944.6 |
| 20260502114601 | 67 | 201 | 1.0 | 3.0 | 0.00 | 0.00 | 0.00 | 39 | 944.6 |
| 20260502114502 | 67 | 183 | 1.0 | 3.0 | 0.00 | 0.00 | 0.00 | 34 | 944.6 |
| 20260502114402 | 67 | 152 | 1.0 | 3.0 | 0.00 | 0.00 | 0.00 | 35 | 944.7 |
| 20260502114303 | 67 | 223 | 2.0 | 3.0 | 0.00 | 0.00 | 0.00 | 37 | 944.5 |
| 20260502114103 | 67 | 204 | 2.0 | 3.0 | 0.00 | 0.00 | 0.00 | 36 | 944.8 |
| 20260502114001 | 68 | 213 | 2.0 | 3.0 | 0.00 | 0.00 | 0.00 | 36 | 944.7 |
| 20260502113900 | 68 | 216 | 2.0 | 3.0 | 0.00 | 0.00 | 0.00 | 35 | 944.8 |
| 20260502113801 | 68 | 200 | 2.0 | 2.0 | 0.00 | 0.00 | 0.00 | 38 | 944.8 |
| 20260502113700 | 68 | 300 | 0.0 | 1.0 | 0.00 | 0.00 | 0.00 | 35 | 944.8 |
| 20260502113601 | 68 | 203 | 0.0 | 1.0 | 0.00 | 0.00 | 0.00 | 37 | 944.8 |
| 20260502113501 | 68 | 322 | 1.0 | 2.0 | 0.00 | 0.00 | 0.00 | 35 | 944.7 |
| 20260502113401 | 68 | 228 | 2.0 | 3.0 | 0.00 | 0.00 | 0.00 | 35 | 945.0 |
| 20260502113301 | 68 | 204 | 2.0 | 3.0 | 0.00 | 0.00 | 0.00 | 40 | 944.7 |
| 20260502113201 | 68 | 211 | 0.0 | 1.0 | 0.00 | 0.00 | 0.00 | 35 | 944.6 |
| 20260502113102 | 68 | 122 | 0.0 | 1.0 | 0.00 | 0.00 | 0.00 | 37 | 944.7 |
| 20260502113001 | 68 | 79 | 0.0 | 1.0 | 0.00 | 0.00 | 0.00 | 35 | 944.8 |
| 20260502112902 | 68 | 51 | 0.0 | 1.0 | 0.00 | 0.00 | 0.00 | 36 | 944.9 |
| 20260502112801 | 68 | 147 | 1.0 | 1.0 | 0.00 | 0.00 | 0.00 | 38 | 944.8 |
| 20260502112701 | 67 | 193 | 1.0 | 1.0 | 0.00 | 0.00 | 0.00 | 40 | 945.0 |
| 20260502112601 | 67 | 241 | 1.0 | 1.0 | 0.00 | 0.00 | 0.00 | 38 | 945.0 |
| 20260502112502 | 67 | 283 | 0.0 | 1.0 | 0.00 | 0.00 | 0.00 | 40 | 944.9 |
| 20260502112401 | 67 | 195 | 1.0 | 2.0 | 0.00 | 0.00 | 0.00 | 37 | 944.9 |
| 20260502112301 | 67 | 169 | 0.0 | 3.0 | 0.00 | 0.00 | 0.00 | 37 | 945.0 |
| 20260502112201 | 67 | 169 | 0.0 | 3.0 | 0.00 | 0.00 | 0.00 | 37 | 945.0 |
| 20260502112101 | 67 | 58 | 2.0 | 3.0 | 0.00 | 0.00 | 0.00 | 37 | 944.9 |
| 20260502112001 | 67 | 227 | 1.0 | 2.0 | 0.00 | 0.00 | 0.00 | 37 | 944.9 |
| 20260502111901 | 67 | 159 | 1.0 | 2.0 | 0.00 | 0.00 | 0.00 | 37 | 944.8 |
| 20260502111801 | 67 | 179 | 1.0 | 2.0 | 0.00 | 0.00 | 0.00 | 36 | 944.8 |
| 20260502111701 | 67 | 127 | 1.0 | 2.0 | 0.00 | 0.00 | 0.00 | 36 | 945.0 |
| 20260502111601 | 67 | 206 | 2.0 | 2.0 | 0.00 | 0.00 | 0.00 | 37 | 945.0 |
| 20260502111500 | 67 | 216 | 1.0 | 2.0 | 0.00 | 0.00 | 0.00 | 36 | 944.8 |
| 20260502111401 | 67 | 69 | 0.0 | 1.0 | 0.00 | 0.00 | 0.00 | 35 | 945.0 |
| 20260502111301 | 67 | 49 | 1.0 | 2.0 | 0.00 | 0.00 | 0.00 | 35 | 944.9 |
| 20260502111201 | 67 | 347 | 1.0 | 3.0 | 0.00 | 0.00 | 0.00 | 35 | 944.9 |
| 20260502111101 | 66 | 341 | 2.0 | 3.0 | 0.00 | 0.00 | 0.00 | 35 | 945.3 |
| 20260502111002 | 66 | 337 | 1.0 | 2.0 | 0.00 | 0.00 | 0.00 | 37 | 945.1 |
| 20260502110901 | 66 | 201 | 1.0 | 2.0 | 0.00 | 0.00 | 0.00 | 36 | 945.2 |
| 20260502110801 | 66 | 193 | 1.0 | 1.0 | 0.00 | 0.00 | 0.00 | 37 | 945.3 |
| 20260502110701 | 66 | 165 | 1.0 | 1.0 | 0.00 | 0.00 | 0.00 | 39 | 945.1 |
| 20260502110601 | 66 | 219 | 1.0 | 2.0 | 0.00 | 0.00 | 0.00 | 37 | 945.0 |
| 20260502110501 | 66 | 209 | 1.0 | 2.0 | 0.00 | 0.00 | 0.00 | 38 | 945.1 |
| 20260502110401 | 66 | 194 | 2.0 | 3.0 | 0.00 | 0.00 | 0.00 | 38 | 945.0 |
| 20260502110301 | 66 | 214 | 2.0 | 3.0 | 0.00 | 0.00 | 0.00 | 38 | 945.2 |
| 20260502110203 | 66 | 185 | 2.0 | 3.0 | 0.00 | 0.00 | 0.00 | 38 | 945.3 |
| 20260502110101 | 66 | 200 | 1.0 | 2.0 | 0.00 | 0.00 | 0.00 | 36 | 945.2 |
| 20260502110001 | 65 | 261 | 1.0 | 1.0 | 0.00 | 0.00 | 0.00 | 38 | 945.3 |
| 20260502105901 | 65 | 270 | 0.0 | 1.0 | 0.00 | 0.00 | 0.00 | 40 | 945.1 |
| 20260502105801 | 65 | 107 | 0.0 | 1.0 | 0.00 | 0.00 | 0.00 | 37 | 945.2 |
| 20260502105701 | 65 | 229 | 1.0 | 2.0 | 0.00 | 0.00 | 0.00 | 37 | 945.2 |
| 20260502105601 | 65 | 224 | 1.0 | 3.0 | 0.00 | 0.00 | 0.00 | 36 | 945.4 |
| 20260502105501 | 65 | 188 | 2.0 | 3.0 | 0.00 | 0.00 | 0.00 | 36 | 945.3 |
| 20260502105400 | 65 | 201 | 2.0 | 3.0 | 0.00 | 0.00 | 0.00 | 41 | 945.1 |
| 20260502105301 | 65 | 218 | 1.0 | 2.0 | 0.00 | 0.00 | 0.00 | 37 | 945.4 |
| 20260502105201 | 65 | 282 | 2.0 | 3.0 | 0.00 | 0.00 | 0.00 | 36 | 945.1 |
| 20260502105101 | 65 | 244 | 1.0 | 3.0 | 0.00 | 0.00 | 0.00 | 37 | 945.2 |
| 20260502105001 | 65 | 219 | 2.0 | 3.0 | 0.00 | 0.00 | 0.00 | 43 | 945.4 |
| 20260502104900 | 66 | 223 | 2.0 | 3.0 | 0.00 | 0.00 | 0.00 | 37 | 945.3 |
| 20260502104801 | 67 | 194 | 2.0 | 3.0 | 0.00 | 0.00 | 0.00 | 37 | 945.2 |
| 20260502104700 | 67 | 188 | 3.0 | 3.0 | 0.00 | 0.00 | 0.00 | 36 | 945.3 |
| 20260502104601 | 67 | 222 | 2.0 | 2.0 | 0.00 | 0.00 | 0.00 | 36 | 945.3 |
| 20260502104501 | 67 | 212 | 2.0 | 2.0 | 0.00 | 0.00 | 0.00 | 40 | 945.2 |
| 20260502104401 | 67 | 88 | 1.0 | 1.0 | 0.00 | 0.00 | 0.00 | 37 | 945.3 |
| 20260502104301 | 67 | 84 | 1.0 | 5.0 | 0.00 | 0.00 | 0.00 | 35 | 945.3 |
| 20260502104201 | 67 | 203 | 3.0 | 5.0 | 0.00 | 0.00 | 0.00 | 39 | 945.3 |
| 20260502104101 | 67 | 55 | 0.0 | 2.0 | 0.00 | 0.00 | 0.00 | 36 | 945.3 |
| 20260502103901 | 67 | 96 | 1.0 | 1.0 | 0.00 | 0.00 | 0.00 | 35 | 945.3 |
| 20260502103803 | 66 | 134 | 1.0 | 1.0 | 0.00 | 0.00 | 0.00 | 36 | 945.4 |
| 20260502103701 | 66 | 89 | 0.0 | 0.0 | 0.00 | 0.00 | 0.00 | 35 | 945.5 |
| 20260502103600 | 66 | 66 | 0.0 | 2.0 | 0.00 | 0.00 | 0.00 | 37 | 945.4 |
| 20260502103502 | 66 | 170 | 0.0 | 2.0 | 0.00 | 0.00 | 0.00 | 38 | 945.5 |
| 20260502103401 | 66 | 128 | 1.0 | 2.0 | 0.00 | 0.00 | 0.00 | 35 | 945.4 |
| 20260502103301 | 66 | 89 | 0.0 | 1.0 | 0.00 | 0.00 | 0.00 | 36 | 945.4 |
| 20260502103201 | 65 | 128 | 0.0 | 1.0 | 0.00 | 0.00 | 0.00 | 37 | 945.4 |
| 20260502103101 | 65 | 87 | 0.0 | 1.0 | 0.00 | 0.00 | 0.00 | 38 | 945.4 |
| 20260502103001 | 65 | 53 | 1.0 | 1.0 | 0.00 | 0.00 | 0.00 | 36 | 945.5 |
| 20260502102901 | 65 | 105 | 0.0 | 2.0 | 0.00 | 0.00 | 0.00 | 38 | 945.3 |
| 20260502102801 | 65 | 106 | 1.0 | 2.0 | 0.00 | 0.00 | 0.00 | 36 | 945.5 |
| 20260502102701 | 64 | 149 | 1.0 | 1.0 | 0.00 | 0.00 | 0.00 | 38 | 945.5 |
| 20260502102600 | 64 | 151 | 1.0 | 1.0 | 0.00 | 0.00 | 0.00 | 41 | 945.5 |
| 20260502102501 | 64 | 182 | 1.0 | 2.0 | 0.00 | 0.00 | 0.00 | 38 | 945.5 |
| 20260502102401 | 64 | 192 | 1.0 | 2.0 | 0.00 | 0.00 | 0.00 | 38 | 945.5 |
| 20260502102301 | 64 | 180 | 2.0 | 2.0 | 0.00 | 0.00 | 0.00 | 40 | 945.5 |
| 20260502102203 | 64 | 180 | 2.0 | 2.0 | 0.00 | 0.00 | 0.00 | 40 | 945.5 |
| 20260502102101 | 64 | 202 | 1.0 | 3.0 | 0.00 | 0.00 | 0.00 | 37 | 945.5 |
| 20260502102001 | 65 | 140 | 2.0 | 3.0 | 0.00 | 0.00 | 0.00 | 37 | 945.6 |
| 20260502101901 | 65 | 139 | 2.0 | 3.0 | 0.00 | 0.00 | 0.00 | 38 | 945.8 |
| 20260502101801 | 65 | 166 | 2.0 | 3.0 | 0.00 | 0.00 | 0.00 | 36 | 945.5 |
| 20260502101701 | 65 | 176 | 2.0 | 3.0 | 0.00 | 0.00 | 0.00 | 37 | 945.6 |
| 20260502101601 | 65 | 164 | 2.0 | 3.0 | 0.00 | 0.00 | 0.00 | 38 | 945.5 |
| 20260502101501 | 65 | 207 | 2.0 | 3.0 | 0.00 | 0.00 | 0.00 | 41 | 945.6 |
| 20260502101401 | 65 | 196 | 2.0 | 3.0 | 0.00 | 0.00 | 0.00 | 38 | 945.5 |
| 20260502101306 | 65 | 125 | 1.0 | 2.0 | 0.00 | 0.00 | 0.00 | 39 | 945.5 |
| 20260502101201 | 65 | 195 | 1.0 | 2.0 | 0.00 | 0.00 | 0.00 | 40 | 945.6 |
| 20260502101100 | 64 | 154 | 2.0 | 2.0 | 0.00 | 0.00 | 0.00 | 40 | 945.5 |
| 20260502101000 | 64 | 185 | 1.0 | 3.0 | 0.00 | 0.00 | 0.00 | 39 | 945.7 |
| 20260502100901 | 64 | 184 | 3.0 | 3.0 | 0.00 | 0.00 | 0.00 | 44 | 945.6 |
| 20260502100801 | 64 | 218 | 1.0 | 2.0 | 0.00 | 0.00 | 0.00 | 40 | 945.7 |
| 20260502100701 | 64 | 226 | 2.0 | 3.0 | 0.00 | 0.00 | 0.00 | 38 | 945.6 |
| 20260502100601 | 65 | 217 | 2.0 | 3.0 | 0.00 | 0.00 | 0.00 | 37 | 945.8 |
| 20260502100501 | 65 | 190 | 3.0 | 3.0 | 0.00 | 0.00 | 0.00 | 39 | 945.5 |
| 20260502100402 | 65 | 190 | 1.0 | 2.0 | 0.00 | 0.00 | 0.00 | 39 | 945.5 |
| 20260502100301 | 65 | 218 | 0.0 | 1.0 | 0.00 | 0.00 | 0.00 | 42 | 945.8 |
| 20260502100201 | 65 | 188 | 1.0 | 2.0 | 0.00 | 0.00 | 0.00 | 37 | 945.6 |
| 20260502091501 | 63 | 124 | 0.0 | 1.0 | 0.00 | 0.00 | 0.00 | 40 | 946.1 |
| 20260502091402 | 63 | 144 | 1.0 | 2.0 | 0.00 | 0.00 | 0.00 | 41 | 946.2 |
| 20260502091301 | 63 | 139 | 0.0 | 2.0 | 0.00 | 0.00 | 0.00 | 40 | 946.1 |
| 20260502091201 | 63 | 184 | 1.0 | 2.0 | 0.00 | 0.00 | 0.00 | 39 | 946.0 |
| 20260502091101 | 63 | 160 | 1.0 | 2.0 | 0.00 | 0.00 | 0.00 | 44 | 946.0 |
| 20260502091001 | 64 | 126 | 1.0 | 3.0 | 0.00 | 0.00 | 0.00 | 41 | 946.1 |
| 20260502090901 | 64 | 131 | 2.0 | 3.0 | 0.00 | 0.00 | 0.00 | 39 | 946.1 |
| 20260502090802 | 64 | 136 | 2.0 | 3.0 | 0.00 | 0.00 | 0.00 | 37 | 946.2 |
| 20260502090701 | 64 | 119 | 1.0 | 2.0 | 0.00 | 0.00 | 0.00 | 43 | 945.9 |
| 20260502090601 | 63 | 95 | 1.0 | 1.0 | 0.00 | 0.00 | 0.00 | 37 | 946.1 |
| 20260502090501 | 63 | 69 | 0.0 | 1.0 | 0.00 | 0.00 | 0.00 | 38 | 946.1 |
| 20260502090401 | 64 | 107 | 1.0 | 2.0 | 0.00 | 0.00 | 0.00 | 37 | 946.1 |
| 20260502090301 | 64 | 125 | 1.0 | 2.0 | 0.00 | 0.00 | 0.00 | 40 | 946.2 |
| 20260502090201 | 64 | 215 | 0.0 | 2.0 | 0.00 | 0.00 | 0.00 | 39 | 946.2 |
| 20260502071501 | 59 | 222 | 1.0 | 1.0 | 0.00 | 0.00 | 0.00 | 45 | 946.3 |
| 20260502071401 | 59 | 237 | 0.0 | 2.0 | 0.00 | 0.00 | 0.00 | 44 | 946.5 |
| 20260502071301 | 60 | 229 | 1.0 | 2.0 | 0.00 | 0.00 | 0.00 | 45 | 946.5 |
| 20260502071201 | 60 | 197 | 1.0 | 2.0 | 0.00 | 0.00 | 0.00 | 44 | 946.2 |
| 20260502071101 | 60 | 164 | 1.0 | 2.0 | 0.00 | 0.00 | 0.00 | 45 | 946.6 |
| 20260502071001 | 60 | 189 | 1.0 | 2.0 | 0.00 | 0.00 | 0.00 | 47 | 946.7 |
| 20260502070900 | 60 | 220 | 1.0 | 1.0 | 0.00 | 0.00 | 0.00 | 46 | 946.6 |
| 20260502070801 | 60 | 212 | 0.0 | 2.0 | 0.00 | 0.00 | 0.00 | 44 | 946.5 |
| 20260502070701 | 60 | 218 | 1.0 | 2.0 | 0.00 | 0.00 | 0.00 | 44 | 946.6 |
| 20260502070601 | 60 | 188 | 1.0 | 2.0 | 0.00 | 0.00 | 0.00 | 44 | 946.4 |
| 20260502070501 | 60 | 177 | 2.0 | 2.0 | 0.00 | 0.00 | 0.00 | 46 | 946.3 |
| 20260502070400 | 60 | 177 | 2.0 | 2.0 | 0.00 | 0.00 | 0.00 | 45 | 946.7 |
| 20260502070302 | 60 | 160 | 1.0 | 2.0 | 0.00 | 0.00 | 0.00 | 44 | 946.4 |
| 20260502070201 | 60 | 177 | 2.0 | 2.0 | 0.00 | 0.00 | 0.00 | 45 | 946.6 |
| 20260502070101 | 60 | 194 | 1.0 | 2.0 | 0.00 | 0.00 | 0.00 | 47 | 946.5 |
| 20260502070001 | 60 | 166 | 1.0 | 2.0 | 0.00 | 0.00 | 0.00 | 45 | 946.6 |
| 20260502065901 | 60 | 171 | 1.0 | 2.0 | 0.00 | 0.00 | 0.00 | 47 | 946.7 |
| 20260502065800 | 60 | 210 | 1.0 | 2.0 | 0.00 | 0.00 | 0.00 | 47 | 946.3 |
| 20260502065701 | 60 | 215 | 1.0 | 2.0 | 0.00 | 0.00 | 0.00 | 45 | 946.5 |
| 20260502065601 | 60 | 200 | 1.0 | 2.0 | 0.00 | 0.00 | 0.00 | 47 | 946.3 |
| 20260502065501 | 60 | 143 | 1.0 | 2.0 | 0.00 | 0.00 | 0.00 | 46 | 946.5 |
| 20260502065401 | 60 | 164 | 1.0 | 2.0 | 0.00 | 0.00 | 0.00 | 50 | 946.3 |
| 20260502065301 | 60 | 229 | 1.0 | 1.0 | 0.00 | 0.00 | 0.00 | 47 | 946.5 |
| 20260502065201 | 60 | 182 | 1.0 | 1.0 | 0.00 | 0.00 | 0.00 | 48 | 946.3 |
| 20260502065101 | 60 | 180 | 1.0 | 1.0 | 0.00 | 0.00 | 0.00 | 46 | 946.7 |
| 20260502065001 | 60 | 206 | 1.0 | 1.0 | 0.00 | 0.00 | 0.00 | 45 | 946.4 |
| 20260502064901 | 60 | 201 | 1.0 | 1.0 | 0.00 | 0.00 | 0.00 | 47 | 946.5 |
| 20260502064801 | 60 | 159 | 1.0 | 1.0 | 0.00 | 0.00 | 0.00 | 48 | 946.5 |
| 20260502064700 | 60 | 130 | 1.0 | 1.0 | 0.00 | 0.00 | 0.00 | 48 | 946.6 |
| 20260502064602 | 60 | 139 | 1.0 | 1.0 | 0.00 | 0.00 | 0.00 | 47 | 946.4 |
| 20260502064501 | 60 | 98 | 1.0 | 1.0 | 0.00 | 0.00 | 0.00 | 47 | 946.5 |
| 20260502064401 | 60 | 132 | 1.0 | 2.0 | 0.00 | 0.00 | 0.00 | 44 | 946.4 |
| 20260502064302 | 60 | 142 | 1.0 | 2.0 | 0.00 | 0.00 | 0.00 | 45 | 946.5 |
| 20260502064201 | 60 | 127 | 2.0 | 2.0 | 0.00 | 0.00 | 0.00 | 47 | 946.5 |
| 20260502064101 | 60 | 114 | 1.0 | 1.0 | 0.00 | 0.00 | 0.00 | 46 | 946.4 |
| 20260502064001 | 59 | 126 | 1.0 | 1.0 | 0.00 | 0.00 | 0.00 | 46 | 946.4 |
| 20260502063901 | 59 | 103 | 0.0 | 2.0 | 0.00 | 0.00 | 0.00 | 46 | 946.5 |
| 20260502063801 | 59 | 112 | 1.0 | 2.0 | 0.00 | 0.00 | 0.00 | 46 | 946.6 |
| 20260502063701 | 59 | 106 | 1.0 | 2.0 | 0.00 | 0.00 | 0.00 | 45 | 946.3 |
| 20260502063601 | 59 | 118 | 1.0 | 2.0 | 0.00 | 0.00 | 0.00 | 46 | 946.5 |
| 20260502063501 | 60 | 125 | 1.0 | 2.0 | 0.00 | 0.00 | 0.00 | 47 | 946.5 |
| 20260502063401 | 60 | 122 | 1.0 | 2.0 | 0.00 | 0.00 | 0.00 | 46 | 946.6 |
| 20260502063301 | 60 | 134 | 1.0 | 2.0 | 0.00 | 0.00 | 0.00 | 46 | 946.4 |
| 20260502063206 | 59 | 141 | 1.0 | 1.0 | 0.00 | 0.00 | 0.00 | 49 | 946.4 |
| 20260502063101 | 59 | 84 | 1.0 | 1.0 | 0.00 | 0.00 | 0.00 | 47 | 946.3 |
| 20260502063001 | 59 | 119 | 1.0 | 1.0 | 0.00 | 0.00 | 0.00 | 47 | 946.4 |
| 20260502062901 | 59 | 116 | 1.0 | 1.0 | 0.00 | 0.00 | 0.00 | 47 | 946.5 |
| 20260502062801 | 59 | 133 | 1.0 | 2.0 | 0.00 | 0.00 | 0.00 | 46 | 946.5 |
| 20260502062701 | 59 | 115 | 1.0 | 2.0 | 0.00 | 0.00 | 0.00 | 45 | 946.3 |
| 20260502062601 | 59 | 122 | 1.0 | 1.0 | 0.00 | 0.00 | 0.00 | 46 | 946.5 |
| 20260502062501 | 59 | 114 | 1.0 | 2.0 | 0.00 | 0.00 | 0.00 | 47 | 946.6 |
| 20260502062401 | 59 | 116 | 1.0 | 2.0 | 0.00 | 0.00 | 0.00 | 46 | 946.4 |
| 20260502062300 | 59 | 113 | 1.0 | 1.0 | 0.00 | 0.00 | 0.00 | 48 | 946.4 |
| 20260502062202 | 59 | 85 | 1.0 | 2.0 | 0.00 | 0.00 | 0.00 | 45 | 946.5 |
| 20260502062101 | 59 | 86 | 1.0 | 2.0 | 0.00 | 0.00 | 0.00 | 47 | 946.3 |
| 20260502062001 | 59 | 119 | 1.0 | 1.0 | 0.00 | 0.00 | 0.00 | 47 | 946.7 |
| 20260502061901 | 59 | 100 | 0.0 | 1.0 | 0.00 | 0.00 | 0.00 | 50 | 946.5 |
| 20260502061801 | 59 | 100 | 0.0 | 1.0 | 0.00 | 0.00 | 0.00 | 50 | 946.5 |
| 20260502061702 | 59 | 116 | 1.0 | 1.0 | 0.00 | 0.00 | 0.00 | 47 | 946.5 |
| 20260502061601 | 59 | 135 | 1.0 | 1.0 | 0.00 | 0.00 | 0.00 | 49 | 946.6 |
| 20260502061501 | 58 | 103 | 0.0 | 1.0 | 0.00 | 0.00 | 0.00 | 48 | 946.4 |
| 20260502061401 | 58 | 111 | 1.0 | 1.0 | 0.00 | 0.00 | 0.00 | 51 | 946.4 |
| 20260502061301 | 59 | 132 | 1.0 | 1.0 | 0.00 | 0.00 | 0.00 | 49 | 946.5 |
| 20260502061201 | 59 | 113 | 1.0 | 1.0 | 0.00 | 0.00 | 0.00 | 47 | 946.4 |
| 20260502061100 | 59 | 122 | 1.0 | 1.0 | 0.00 | 0.00 | 0.00 | 48 | 946.4 |
| 20260502061001 | 59 | 142 | 1.0 | 1.0 | 0.00 | 0.00 | 0.00 | 47 | 946.5 |
| 20260502060901 | 59 | 131 | 1.0 | 1.0 | 0.00 | 0.00 | 0.00 | 49 | 946.4 |
| 20260502060801 | 59 | 120 | 1.0 | 1.0 | 0.00 | 0.00 | 0.00 | 48 | 946.6 |
| 20260502060701 | 59 | 128 | 1.0 | 1.0 | 0.00 | 0.00 | 0.00 | 47 | 946.5 |
| 20260502060601 | 59 | 138 | 1.0 | 1.0 | 0.00 | 0.00 | 0.00 | 49 | 946.4 |
| 20260502060501 | 59 | 139 | 0.0 | 1.0 | 0.00 | 0.00 | 0.00 | 48 | 946.3 |
| 20260502060401 | 59 | 97 | 0.0 | 1.0 | 0.00 | 0.00 | 0.00 | 47 | 946.5 |
| 20260502060301 | 59 | 119 | 0.0 | 1.0 | 0.00 | 0.00 | 0.00 | 47 | 946.4 |
| 20260502060201 | 59 | 154 | 1.0 | 1.0 | 0.00 | 0.00 | 0.00 | 49 | 946.4 |
| 20260502060100 | 59 | 140 | 1.0 | 1.0 | 0.00 | 0.00 | 0.00 | 47 | 946.3 |
| 20260502060001 | 59 | 144 | 1.0 | 1.0 | 0.00 | 0.00 | 0.00 | 47 | 946.5 |
| 20260502055901 | 60 | 130 | 1.0 | 1.0 | 0.00 | 0.00 | 0.00 | 47 | 946.4 |
| 20260502055801 | 60 | 117 | 1.0 | 1.0 | 0.00 | 0.00 | 0.00 | 47 | 946.4 |
| 20260502055701 | 60 | 118 | 0.0 | 1.0 | 0.00 | 0.00 | 0.00 | 45 | 946.4 |
| 20260502055601 | 60 | 143 | 1.0 | 1.0 | 0.00 | 0.00 | 0.00 | 46 | 946.5 |
| 20260502055501 | 60 | 94 | 0.0 | 1.0 | 0.00 | 0.00 | 0.00 | 46 | 946.6 |
| 20260502055401 | 60 | 99 | 0.0 | 1.0 | 0.00 | 0.00 | 0.00 | 45 | 946.4 |
| 20260502055301 | 60 | 85 | 1.0 | 1.0 | 0.00 | 0.00 | 0.00 | 45 | 946.4 |
| 20260502055201 | 60 | 85 | 0.0 | 1.0 | 0.00 | 0.00 | 0.00 | 48 | 946.4 |
| 20260502055101 | 60 | 143 | 1.0 | 1.0 | 0.00 | 0.00 | 0.00 | 46 | 946.5 |
| 20260502055001 | 60 | 111 | 0.0 | 0.0 | 0.00 | 0.00 | 0.00 | 46 | 946.4 |
| 20260502054901 | 60 | 105 | 0.0 | 0.0 | 0.00 | 0.00 | 0.00 | 47 | 946.4 |
| 20260502054800 | 60 | 121 | 0.0 | 0.0 | 0.00 | 0.00 | 0.00 | 48 | 946.5 |
| 20260502054701 | 60 | 94 | 0.0 | 0.0 | 0.00 | 0.00 | 0.00 | 46 | 946.4 |
| 20260502054601 | 61 | 134 | 0.0 | 1.0 | 0.00 | 0.00 | 0.00 | 44 | 946.5 |
| 20260502054501 | 61 | 129 | 0.0 | 1.0 | 0.00 | 0.00 | 0.00 | 45 | 946.5 |
| 20260502054401 | 62 | 106 | 0.0 | 1.0 | 0.00 | 0.00 | 0.00 | 43 | 946.4 |
| 20260502054301 | 62 | 106 | 0.0 | 1.0 | 0.00 | 0.00 | 0.00 | 42 | 946.7 |
| 20260502054202 | 62 | 102 | 0.0 | 1.0 | 0.00 | 0.00 | 0.00 | 42 | 946.4 |
| 20260502054100 | 62 | 100 | 0.0 | 0.0 | 0.00 | 0.00 | 0.00 | 42 | 946.4 |
| 20260502054001 | 62 | 114 | 0.0 | 0.0 | 0.00 | 0.00 | 0.00 | 43 | 946.4 |
| 20260502053901 | 62 | 205 | 0.0 | 0.0 | 0.00 | 0.00 | 0.00 | 44 | 946.4 |
| 20260502053800 | 62 | 205 | 0.0 | 0.0 | 0.00 | 0.00 | 0.00 | 44 | 946.6 |
| 20260502053700 | 61 | 205 | 0.0 | 0.0 | 0.00 | 0.00 | 0.00 | 44 | 946.4 |
| 20260502053601 | 61 | 205 | 0.0 | 0.0 | 0.00 | 0.00 | 0.00 | 45 | 946.4 |
| 20260502053500 | 60 | 205 | 0.0 | 0.0 | 0.00 | 0.00 | 0.00 | 46 | 946.5 |
| 20260502053400 | 60 | 205 | 0.0 | 0.0 | 0.00 | 0.00 | 0.00 | 46 | 946.3 |
| 20260502053301 | 60 | 205 | 0.0 | 0.0 | 0.00 | 0.00 | 0.00 | 45 | 946.2 |
| 20260502053201 | 60 | 205 | 0.0 | 0.0 | 0.00 | 0.00 | 0.00 | 46 | 946.4 |
| 20260502053101 | 59 | 205 | 0.0 | 0.0 | 0.00 | 0.00 | 0.00 | 46 | 946.2 |
| 20260502053002 | 59 | 205 | 0.0 | 0.0 | 0.00 | 0.00 | 0.00 | 45 | 946.5 |
| 20260502052901 | 59 | 205 | 0.0 | 0.0 | 0.00 | 0.00 | 0.00 | 46 | 946.4 |
| 20260502052802 | 59 | 205 | 0.0 | 0.0 | 0.00 | 0.00 | 0.00 | 45 | 946.4 |
| 20260502052701 | 58 | 205 | 0.0 | 0.0 | 0.00 | 0.00 | 0.00 | 46 | 946.4 |
| 20260502052601 | 58 | 205 | 0.0 | 0.0 | 0.00 | 0.00 | 0.00 | 46 | 946.5 |
| 20260502052501 | 58 | 205 | 0.0 | 0.0 | 0.00 | 0.00 | 0.00 | 46 | 946.5 |
| 20260502052401 | 58 | 205 | 0.0 | 0.0 | 0.00 | 0.00 | 0.00 | 47 | 946.4 |
| 20260502052301 | 58 | 206 | 0.0 | 0.0 | 0.00 | 0.00 | 0.00 | 49 | 946.5 |
| 20260502052200 | 58 | 206 | 0.0 | 0.0 | 0.00 | 0.00 | 0.00 | 48 | 946.5 |
| 20260502052101 | 58 | 206 | 0.0 | 0.0 | 0.00 | 0.00 | 0.00 | 50 | 946.3 |
| 20260502052001 | 58 | 206 | 0.0 | 0.0 | 0.00 | 0.00 | 0.00 | 49 | 946.5 |
| 20260502051901 | 58 | 206 | 0.0 | 0.0 | 0.00 | 0.00 | 0.00 | 48 | 946.3 |
| 20260502051801 | 58 | 206 | 0.0 | 0.0 | 0.00 | 0.00 | 0.00 | 49 | 946.4 |
| 20260502051702 | 58 | 206 | 0.0 | 0.0 | 0.00 | 0.00 | 0.00 | 49 | 946.4 |
| 20260502051601 | 58 | 206 | 0.0 | 0.0 | 0.00 | 0.00 | 0.00 | 50 | 946.3 |
| 20260502051501 | 58 | 206 | 0.0 | 0.0 | 0.00 | 0.00 | 0.00 | 50 | 946.4 |
| 20260502051401 | 57 | 206 | 0.0 | 0.0 | 0.00 | 0.00 | 0.00 | 47 | 946.4 |
| 20260502051301 | 57 | 206 | 0.0 | 0.0 | 0.00 | 0.00 | 0.00 | 47 | 946.2 |
| 20260502051201 | 57 | 206 | 0.0 | 0.0 | 0.00 | 0.00 | 0.00 | 48 | 946.3 |
| 20260502051100 | 57 | 206 | 0.0 | 0.0 | 0.00 | 0.00 | 0.00 | 50 | 946.4 |
| 20260502051002 | 57 | 206 | 0.0 | 0.0 | 0.00 | 0.00 | 0.00 | 48 | 946.6 |
| 20260502050902 | 57 | 206 | 0.0 | 0.0 | 0.00 | 0.00 | 0.00 | 51 | 946.5 |
| 20260502050801 | 57 | 206 | 0.0 | 0.0 | 0.00 | 0.00 | 0.00 | 48 | 946.3 |
| 20260502050700 | 57 | 205 | 0.0 | 1.0 | 0.00 | 0.00 | 0.00 | 48 | 946.2 |
| 20260502050601 | 57 | 205 | 0.0 | 1.0 | 0.00 | 0.00 | 0.00 | 48 | 946.4 |
| 20260502050500 | 57 | 205 | 0.0 | 1.0 | 0.00 | 0.00 | 0.00 | 49 | 946.5 |
| 20260502050406 | 56 | 206 | 0.0 | 1.0 | 0.00 | 0.00 | 0.00 | 49 | 946.4 |
| 20260502050302 | 56 | 206 | 0.0 | 1.0 | 0.00 | 0.00 | 0.00 | 49 | 946.2 |
| 20260502050201 | 56 | 206 | 0.0 | 1.0 | 0.00 | 0.00 | 0.00 | 51 | 946.3 |
| 20260502050101 | 56 | 206 | 1.0 | 1.0 | 0.00 | 0.00 | 0.00 | 50 | 946.4 |
| 20260502050001 | 57 | 206 | 0.0 | 1.0 | 0.00 | 0.00 | 0.00 | 50 | 946.3 |
| 20260502045903 | 57 | 206 | 0.0 | 0.0 | 0.00 | 0.00 | 0.00 | 52 | 946.3 |
| 20260502045801 | 57 | 206 | 0.0 | 0.0 | 0.00 | 0.00 | 0.00 | 52 | 946.4 |
| 20260502045705 | 57 | 207 | 0.0 | 1.0 | 0.00 | 0.00 | 0.00 | 47 | 946.2 |
| 20260502045601 | 57 | 207 | 0.0 | 1.0 | 0.00 | 0.00 | 0.00 | 46 | 946.4 |
| 20260502045500 | 57 | 212 | 1.0 | 1.0 | 0.00 | 0.00 | 0.00 | 46 | 946.2 |
| 20260502045401 | 57 | 89 | 0.0 | 1.0 | 0.00 | 0.00 | 0.00 | 48 | 946.2 |
| 20260502045301 | 57 | 88 | 0.0 | 0.0 | 0.00 | 0.00 | 0.00 | 47 | 946.2 |
| 20260502045201 | 57 | 89 | 0.0 | 0.0 | 0.00 | 0.00 | 0.00 | 46 | 946.3 |
| 20260502045101 | 57 | 89 | 0.0 | 0.0 | 0.00 | 0.00 | 0.00 | 46 | 946.4 |
| 20260502045000 | 57 | 89 | 0.0 | 0.0 | 0.00 | 0.00 | 0.00 | 46 | 946.2 |
| 20260502044900 | 57 | 88 | 0.0 | 0.0 | 0.00 | 0.00 | 0.00 | 46 | 946.3 |
| 20260502044805 | 57 | 89 | 0.0 | 0.0 | 0.00 | 0.00 | 0.00 | 46 | 946.4 |
| 20260502044702 | 57 | 89 | 0.0 | 0.0 | 0.00 | 0.00 | 0.00 | 46 | 946.3 |
| 20260502044600 | 57 | 88 | 0.0 | 0.0 | 0.00 | 0.00 | 0.00 | 46 | 946.3 |
| 20260502044501 | 57 | 88 | 0.0 | 0.0 | 0.00 | 0.00 | 0.00 | 45 | 946.3 |
| 20260502044403 | 57 | 88 | 0.0 | 0.0 | 0.00 | 0.00 | 0.00 | 45 | 946.4 |
| 20260502044300 | 57 | 88 | 0.0 | 0.0 | 0.00 | 0.00 | 0.00 | 45 | 946.2 |
| 20260502044201 | 57 | 88 | 0.0 | 0.0 | 0.00 | 0.00 | 0.00 | 45 | 946.4 |
| 20260502044101 | 57 | 88 | 0.0 | 0.0 | 0.00 | 0.00 | 0.00 | 45 | 946.3 |
| 20260502044001 | 57 | 88 | 0.0 | 0.0 | 0.00 | 0.00 | 0.00 | 45 | 946.3 |
| 20260502043901 | 57 | 88 | 0.0 | 0.0 | 0.00 | 0.00 | 0.00 | 45 | 946.2 |
| 20260502043801 | 57 | 88 | 0.0 | 0.0 | 0.00 | 0.00 | 0.00 | 45 | 946.0 |
| 20260502043702 | 57 | 88 | 0.0 | 0.0 | 0.00 | 0.00 | 0.00 | 45 | 946.3 |
| 20260502043601 | 57 | 88 | 0.0 | 0.0 | 0.00 | 0.00 | 0.00 | 45 | 946.3 |
| 20260502043500 | 56 | 88 | 0.0 | 0.0 | 0.00 | 0.00 | 0.00 | 46 | 946.3 |
| 20260502043401 | 56 | 88 | 0.0 | 0.0 | 0.00 | 0.00 | 0.00 | 46 | 946.3 |
| 20260502043301 | 56 | 88 | 0.0 | 0.0 | 0.00 | 0.00 | 0.00 | 46 | 946.1 |
| 20260502043205 | 56 | 88 | 0.0 | 0.0 | 0.00 | 0.00 | 0.00 | 46 | 946.3 |
| 20260502043100 | 56 | 88 | 0.0 | 0.0 | 0.00 | 0.00 | 0.00 | 46 | 946.3 |
| 20260502043004 | 56 | 88 | 0.0 | 0.0 | 0.00 | 0.00 | 0.00 | 47 | 946.3 |
| 20260502042901 | 56 | 88 | 0.0 | 0.0 | 0.00 | 0.00 | 0.00 | 47 | 946.2 |
| 20260502042801 | 55 | 88 | 0.0 | 0.0 | 0.00 | 0.00 | 0.00 | 47 | 946.2 |
| 20260502042701 | 55 | 88 | 0.0 | 0.0 | 0.00 | 0.00 | 0.00 | 47 | 946.3 |
| 20260502042601 | 55 | 88 | 0.0 | 0.0 | 0.00 | 0.00 | 0.00 | 47 | 946.4 |
| 20260502042501 | 55 | 88 | 0.0 | 0.0 | 0.00 | 0.00 | 0.00 | 47 | 946.3 |
| 20260502042401 | 55 | 88 | 0.0 | 0.0 | 0.00 | 0.00 | 0.00 | 47 | 946.4 |
| 20260502042300 | 55 | 89 | 0.0 | 0.0 | 0.00 | 0.00 | 0.00 | 47 | 946.2 |
| 20260502042201 | 55 | 88 | 0.0 | 0.0 | 0.00 | 0.00 | 0.00 | 47 | 946.2 |
| 20260502042101 | 55 | 88 | 0.0 | 0.0 | 0.00 | 0.00 | 0.00 | 47 | 946.3 |
| 20260502042000 | 55 | 88 | 0.0 | 0.0 | 0.00 | 0.00 | 0.00 | 47 | 946.2 |
| 20260502041900 | 55 | 88 | 0.0 | 0.0 | 0.00 | 0.00 | 0.00 | 47 | 946.2 |
| 20260502041801 | 55 | 88 | 0.0 | 0.0 | 0.00 | 0.00 | 0.00 | 47 | 946.0 |
| 20260502041701 | 55 | 88 | 0.0 | 0.0 | 0.00 | 0.00 | 0.00 | 47 | 946.3 |
| 20260502041601 | 55 | 88 | 0.0 | 0.0 | 0.00 | 0.00 | 0.00 | 47 | 946.3 |
| 20260502041502 | 55 | 88 | 0.0 | 0.0 | 0.00 | 0.00 | 0.00 | 47 | 946.1 |
| 20260502041401 | 55 | 88 | 0.0 | 0.0 | 0.00 | 0.00 | 0.00 | 47 | 946.3 |
| 20260502041301 | 55 | 88 | 0.0 | 1.0 | 0.00 | 0.00 | 0.00 | 47 | 946.1 |
| 20260502041201 | 55 | 88 | 0.0 | 1.0 | 0.00 | 0.00 | 0.00 | 48 | 946.1 |
| 20260502041101 | 55 | 88 | 0.0 | 1.0 | 0.00 | 0.00 | 0.00 | 48 | 946.0 |
| 20260502041001 | 55 | 88 | 0.0 | 1.0 | 0.00 | 0.00 | 0.00 | 48 | 946.2 |
| 20260502040901 | 55 | 88 | 0.0 | 1.0 | 0.00 | 0.00 | 0.00 | 47 | 946.2 |
| 20260502040801 | 55 | 88 | 0.0 | 1.0 | 0.00 | 0.00 | 0.00 | 47 | 946.4 |
| 20260502040701 | 55 | 88 | 0.0 | 0.0 | 0.00 | 0.00 | 0.00 | 47 | 946.2 |
| 20260502040600 | 55 | 88 | 0.0 | 0.0 | 0.00 | 0.00 | 0.00 | 47 | 946.1 |
| 20260502040500 | 55 | 88 | 0.0 | 0.0 | 0.00 | 0.00 | 0.00 | 47 | 946.2 |
| 20260502040401 | 55 | 88 | 0.0 | 0.0 | 0.00 | 0.00 | 0.00 | 47 | 946.2 |
| 20260502040302 | 55 | 88 | 0.0 | 0.0 | 0.00 | 0.00 | 0.00 | 47 | 946.3 |
| 20260502040201 | 55 | 88 | 0.0 | 0.0 | 0.00 | 0.00 | 0.00 | 47 | 946.2 |
| 20260502040100 | 55 | 88 | 0.0 | 0.0 | 0.00 | 0.00 | 0.00 | 47 | 946.1 |
| 20260502040001 | 55 | 88 | 0.0 | 0.0 | 0.00 | 0.00 | 0.00 | 48 | 946.0 |
| 20260502035901 | 55 | 88 | 0.0 | 0.0 | 0.00 | 0.00 | 0.00 | 48 | 946.1 |
| 20260502035800 | 55 | 87 | 0.0 | 0.0 | 0.00 | 0.00 | 0.00 | 48 | 946.2 |
| 20260502035701 | 55 | 87 | 0.0 | 0.0 | 0.00 | 0.00 | 0.00 | 48 | 946.1 |
| 20260502035602 | 54 | 88 | 0.0 | 0.0 | 0.00 | 0.00 | 0.00 | 48 | 946.2 |
| 20260502035500 | 54 | 88 | 0.0 | 0.0 | 0.00 | 0.00 | 0.00 | 49 | 946.0 |
| 20260502035401 | 54 | 88 | 0.0 | 0.0 | 0.00 | 0.00 | 0.00 | 49 | 946.1 |
| 20260502035301 | 54 | 88 | 0.0 | 0.0 | 0.00 | 0.00 | 0.00 | 49 | 946.3 |
| 20260502035201 | 54 | 88 | 0.0 | 0.0 | 0.00 | 0.00 | 0.00 | 49 | 946.0 |
| 20260502035102 | 53 | 88 | 0.0 | 0.0 | 0.00 | 0.00 | 0.00 | 50 | 946.0 |
| 20260502035000 | 53 | 88 | 0.0 | 0.0 | 0.00 | 0.00 | 0.00 | 50 | 946.0 |
| 20260502034900 | 53 | 88 | 0.0 | 0.0 | 0.00 | 0.00 | 0.00 | 50 | 946.2 |
| 20260502034801 | 53 | 88 | 0.0 | 0.0 | 0.00 | 0.00 | 0.00 | 51 | 946.3 |
| 20260502034700 | 53 | 88 | 0.0 | 0.0 | 0.00 | 0.00 | 0.00 | 51 | 946.1 |
| 20260502034600 | 53 | 88 | 0.0 | 0.0 | 0.00 | 0.00 | 0.00 | 51 | 946.2 |
| 20260502034501 | 53 | 88 | 0.0 | 0.0 | 0.00 | 0.00 | 0.00 | 51 | 946.2 |
| 20260502034400 | 53 | 88 | 0.0 | 0.0 | 0.00 | 0.00 | 0.00 | 51 | 946.0 |
| 20260502034301 | 52 | 88 | 0.0 | 0.0 | 0.00 | 0.00 | 0.00 | 52 | 946.1 |
| 20260502034201 | 52 | 88 | 0.0 | 0.0 | 0.00 | 0.00 | 0.00 | 52 | 946.1 |
| 20260502034101 | 52 | 88 | 0.0 | 0.0 | 0.00 | 0.00 | 0.00 | 52 | 946.2 |
| 20260502034001 | 52 | 88 | 0.0 | 0.0 | 0.00 | 0.00 | 0.00 | 52 | 946.0 |
| 20260502033901 | 52 | 88 | 0.0 | 0.0 | 0.00 | 0.00 | 0.00 | 52 | 946.3 |
| 20260502033801 | 52 | 88 | 0.0 | 0.0 | 0.00 | 0.00 | 0.00 | 52 | 945.9 |
| 20260502033702 | 52 | 88 | 0.0 | 0.0 | 0.00 | 0.00 | 0.00 | 53 | 946.1 |
| 20260502033601 | 52 | 88 | 0.0 | 0.0 | 0.00 | 0.00 | 0.00 | 53 | 946.0 |
| 20260502033501 | 52 | 88 | 0.0 | 0.0 | 0.00 | 0.00 | 0.00 | 52 | 946.2 |
| 20260502033401 | 52 | 88 | 0.0 | 0.0 | 0.00 | 0.00 | 0.00 | 52 | 946.2 |
| 20260502033301 | 52 | 88 | 0.0 | 0.0 | 0.00 | 0.00 | 0.00 | 52 | 946.0 |
| 20260502033201 | 52 | 88 | 0.0 | 0.0 | 0.00 | 0.00 | 0.00 | 52 | 946.2 |
| 20260502033101 | 53 | 88 | 0.0 | 0.0 | 0.00 | 0.00 | 0.00 | 52 | 946.1 |
| 20260502033001 | 53 | 88 | 0.0 | 0.0 | 0.00 | 0.00 | 0.00 | 52 | 946.1 |
| 20260502032902 | 53 | 88 | 0.0 | 0.0 | 0.00 | 0.00 | 0.00 | 51 | 946.3 |
| 20260502032802 | 53 | 88 | 0.0 | 0.0 | 0.00 | 0.00 | 0.00 | 51 | 946.3 |
| 20260502032701 | 53 | 88 | 0.0 | 0.0 | 0.00 | 0.00 | 0.00 | 51 | 946.2 |
| 20260502032601 | 53 | 88 | 0.0 | 0.0 | 0.00 | 0.00 | 0.00 | 51 | 946.2 |
| 20260502032501 | 53 | 88 | 0.0 | 0.0 | 0.00 | 0.00 | 0.00 | 51 | 946.2 |
| 20260502032401 | 53 | 88 | 0.0 | 0.0 | 0.00 | 0.00 | 0.00 | 51 | 946.2 |
| 20260502032301 | 53 | 88 | 0.0 | 0.0 | 0.00 | 0.00 | 0.00 | 51 | 946.3 |
| 20260502032201 | 53 | 88 | 0.0 | 0.0 | 0.00 | 0.00 | 0.00 | 51 | 946.1 |
| 20260502032100 | 53 | 88 | 0.0 | 0.0 | 0.00 | 0.00 | 0.00 | 50 | 946.2 |
| 20260502032001 | 53 | 88 | 0.0 | 0.0 | 0.00 | 0.00 | 0.00 | 50 | 946.2 |
| 20260502031901 | 53 | 88 | 0.0 | 0.0 | 0.00 | 0.00 | 0.00 | 50 | 946.2 |
| 20260502031801 | 54 | 88 | 0.0 | 0.0 | 0.00 | 0.00 | 0.00 | 50 | 946.1 |
| 20260502031701 | 54 | 88 | 0.0 | 0.0 | 0.00 | 0.00 | 0.00 | 50 | 946.2 |
| 20260502031602 | 54 | 88 | 0.0 | 0.0 | 0.00 | 0.00 | 0.00 | 50 | 946.2 |
| 20260502031501 | 54 | 88 | 0.0 | 0.0 | 0.00 | 0.00 | 0.00 | 50 | 946.3 |
| 20260502031401 | 53 | 88 | 0.0 | 0.0 | 0.00 | 0.00 | 0.00 | 50 | 946.1 |
| 20260502031301 | 53 | 88 | 0.0 | 0.0 | 0.00 | 0.00 | 0.00 | 50 | 946.2 |
| 20260502031206 | 53 | 88 | 0.0 | 0.0 | 0.00 | 0.00 | 0.00 | 50 | 946.0 |
| 20260502031101 | 54 | 88 | 0.0 | 0.0 | 0.00 | 0.00 | 0.00 | 50 | 946.1 |
| 20260502031001 | 54 | 88 | 0.0 | 0.0 | 0.00 | 0.00 | 0.00 | 50 | 946.2 |
| 20260502030902 | 54 | 88 | 0.0 | 0.0 | 0.00 | 0.00 | 0.00 | 50 | 946.2 |
| 20260502030801 | 54 | 88 | 0.0 | 0.0 | 0.00 | 0.00 | 0.00 | 49 | 946.4 |
| 20260502030701 | 54 | 88 | 0.0 | 0.0 | 0.00 | 0.00 | 0.00 | 49 | 946.0 |
| 20260502030601 | 55 | 88 | 0.0 | 0.0 | 0.00 | 0.00 | 0.00 | 49 | 946.2 |
| 20260502030502 | 55 | 88 | 0.0 | 0.0 | 0.00 | 0.00 | 0.00 | 48 | 946.1 |
| 20260502030400 | 55 | 88 | 0.0 | 0.0 | 0.00 | 0.00 | 0.00 | 48 | 946.1 |
| 20260502030301 | 55 | 88 | 0.0 | 0.0 | 0.00 | 0.00 | 0.00 | 47 | 946.1 |
| 20260502030201 | 55 | 88 | 0.0 | 0.0 | 0.00 | 0.00 | 0.00 | 47 | 946.2 |
| 20260502030000 | 55 | 88 | 0.0 | 0.0 | 0.00 | 0.00 | 0.00 | 47 | 946.3 |
| 20260502025901 | 55 | 88 | 0.0 | 0.0 | 0.00 | 0.00 | 0.00 | 47 | 946.2 |
| 20260502025801 | 55 | 88 | 0.0 | 0.0 | 0.00 | 0.00 | 0.00 | 48 | 946.2 |
| 20260502025700 | 55 | 88 | 0.0 | 0.0 | 0.00 | 0.00 | 0.00 | 48 | 946.1 |
| 20260502025601 | 55 | 88 | 0.0 | 0.0 | 0.00 | 0.00 | 0.00 | 48 | 946.1 |
| 20260502025501 | 55 | 88 | 0.0 | 0.0 | 0.00 | 0.00 | 0.00 | 48 | 946.1 |
| 20260502025401 | 55 | 88 | 0.0 | 0.0 | 0.00 | 0.00 | 0.00 | 48 | 946.1 |
| 20260502025301 | 55 | 88 | 0.0 | 0.0 | 0.00 | 0.00 | 0.00 | 48 | 946.1 |
| 20260502025202 | 55 | 88 | 0.0 | 0.0 | 0.00 | 0.00 | 0.00 | 47 | 946.2 |
| 20260502025101 | 55 | 88 | 0.0 | 0.0 | 0.00 | 0.00 | 0.00 | 48 | 946.4 |
| 20260502025001 | 55 | 88 | 0.0 | 0.0 | 0.00 | 0.00 | 0.00 | 48 | 946.3 |
| 20260502024901 | 55 | 88 | 0.0 | 0.0 | 0.00 | 0.00 | 0.00 | 47 | 946.4 |
| 20260502024801 | 55 | 88 | 0.0 | 0.0 | 0.00 | 0.00 | 0.00 | 48 | 946.3 |
| 20260502024701 | 55 | 88 | 0.0 | 0.0 | 0.00 | 0.00 | 0.00 | 48 | 946.3 |
| 20260502024601 | 55 | 88 | 0.0 | 0.0 | 0.00 | 0.00 | 0.00 | 48 | 946.5 |
| 20260502024501 | 55 | 88 | 0.0 | 1.0 | 0.00 | 0.00 | 0.00 | 48 | 946.3 |
| 20260502024401 | 55 | 89 | 0.0 | 1.0 | 0.00 | 0.00 | 0.00 | 48 | 946.2 |
| 20260502024301 | 55 | 88 | 0.0 | 1.0 | 0.00 | 0.00 | 0.00 | 47 | 946.3 |
| 20260502024201 | 55 | 88 | 0.0 | 1.0 | 0.00 | 0.00 | 0.00 | 47 | 946.0 |
| 20260502024101 | 55 | 89 | 0.0 | 1.0 | 0.00 | 0.00 | 0.00 | 47 | 946.2 |
| 20260502024001 | 55 | 88 | 0.0 | 1.0 | 0.00 | 0.00 | 0.00 | 47 | 946.3 |
| 20260502023901 | 55 | 88 | 1.0 | 1.0 | 0.00 | 0.00 | 0.00 | 47 | 946.3 |
| 20260502023802 | 55 | 88 | 1.0 | 1.0 | 0.00 | 0.00 | 0.00 | 47 | 946.4 |
| 20260502023701 | 55 | 89 | 0.0 | 1.0 | 0.00 | 0.00 | 0.00 | 48 | 946.3 |
| 20260502023601 | 55 | 88 | 0.0 | 1.0 | 0.00 | 0.00 | 0.00 | 48 | 946.2 |
| 20260502023501 | 55 | 88 | 1.0 | 1.0 | 0.00 | 0.00 | 0.00 | 48 | 946.4 |
| 20260502023401 | 55 | 88 | 1.0 | 1.0 | 0.00 | 0.00 | 0.00 | 48 | 946.2 |
| 20260502023302 | 55 | 88 | 1.0 | 1.0 | 0.00 | 0.00 | 0.00 | 48 | 946.3 |
| 20260502023201 | 55 | 88 | 1.0 | 1.0 | 0.00 | 0.00 | 0.00 | 48 | 946.4 |
| 20260502023100 | 55 | 88 | 1.0 | 1.0 | 0.00 | 0.00 | 0.00 | 48 | 946.3 |
| 20260502023001 | 55 | 89 | 1.0 | 1.0 | 0.00 | 0.00 | 0.00 | 48 | 946.3 |
| 20260502022901 | 55 | 88 | 1.0 | 1.0 | 0.00 | 0.00 | 0.00 | 48 | 946.2 |
| 20260502022801 | 55 | 88 | 1.0 | 1.0 | 0.00 | 0.00 | 0.00 | 48 | 946.3 |
| 20260502022701 | 55 | 88 | 0.0 | 1.0 | 0.00 | 0.00 | 0.00 | 48 | 946.4 |
| 20260502022602 | 55 | 88 | 0.0 | 1.0 | 0.00 | 0.00 | 0.00 | 48 | 946.3 |
| 20260502022501 | 55 | 88 | 0.0 | 0.0 | 0.00 | 0.00 | 0.00 | 49 | 946.4 |
| 20260502022400 | 55 | 88 | 0.0 | 0.0 | 0.00 | 0.00 | 0.00 | 49 | 946.4 |
| 20260502022301 | 55 | 88 | 0.0 | 0.0 | 0.00 | 0.00 | 0.00 | 49 | 946.4 |
| 20260502022201 | 55 | 88 | 0.0 | 0.0 | 0.00 | 0.00 | 0.00 | 48 | 946.4 |
| 20260502022101 | 55 | 88 | 0.0 | 0.0 | 0.00 | 0.00 | 0.00 | 48 | 946.5 |
| 20260502022001 | 55 | 88 | 0.0 | 0.0 | 0.00 | 0.00 | 0.00 | 48 | 946.4 |
| 20260502021901 | 55 | 88 | 0.0 | 0.0 | 0.00 | 0.00 | 0.00 | 48 | 946.4 |
| 20260502021801 | 55 | 88 | 0.0 | 0.0 | 0.00 | 0.00 | 0.00 | 48 | 946.4 |
| 20260502021701 | 55 | 88 | 0.0 | 0.0 | 0.00 | 0.00 | 0.00 | 48 | 946.5 |
| 20260502021602 | 55 | 88 | 0.0 | 0.0 | 0.00 | 0.00 | 0.00 | 48 | 946.3 |
| 20260502021502 | 55 | 88 | 0.0 | 0.0 | 0.00 | 0.00 | 0.00 | 48 | 946.3 |
| 20260502021401 | 55 | 88 | 0.0 | 0.0 | 0.00 | 0.00 | 0.00 | 48 | 946.2 |
| 20260502021301 | 55 | 88 | 0.0 | 0.0 | 0.00 | 0.00 | 0.00 | 48 | 946.3 |
| 20260502021201 | 55 | 88 | 0.0 | 0.0 | 0.00 | 0.00 | 0.00 | 48 | 946.3 |
| 20260502021101 | 55 | 88 | 0.0 | 0.0 | 0.00 | 0.00 | 0.00 | 48 | 946.4 |
| 20260502021000 | 55 | 88 | 0.0 | 0.0 | 0.00 | 0.00 | 0.00 | 48 | 946.5 |
| 20260502020901 | 55 | 88 | 0.0 | 0.0 | 0.00 | 0.00 | 0.00 | 48 | 946.2 |
| 20260502020801 | 55 | 88 | 0.0 | 0.0 | 0.00 | 0.00 | 0.00 | 48 | 946.2 |
| 20260502020701 | 55 | 88 | 0.0 | 0.0 | 0.00 | 0.00 | 0.00 | 48 | 946.4 |
| 20260502020600 | 55 | 88 | 0.0 | 0.0 | 0.00 | 0.00 | 0.00 | 48 | 946.4 |
| 20260502020505 | 55 | 88 | 0.0 | 0.0 | 0.00 | 0.00 | 0.00 | 48 | 946.2 |
| 20260502020401 | 55 | 88 | 0.0 | 0.0 | 0.00 | 0.00 | 0.00 | 48 | 946.4 |
| 20260502020301 | 55 | 88 | 0.0 | 0.0 | 0.00 | 0.00 | 0.00 | 48 | 946.3 |
| 20260502020201 | 55 | 88 | 0.0 | 0.0 | 0.00 | 0.00 | 0.00 | 48 | 946.4 |
| 20260502020002 | 55 | 88 | 0.0 | 1.0 | 0.00 | 0.00 | 0.00 | 48 | 946.6 |
| 20260502015902 | 55 | 88 | 0.0 | 1.0 | 0.00 | 0.00 | 0.00 | 48 | 946.3 |
| 20260502015802 | 55 | 88 | 0.0 | 1.0 | 0.00 | 0.00 | 0.00 | 47 | 946.3 |
| 20260502015701 | 55 | 88 | 0.0 | 1.0 | 0.00 | 0.00 | 0.00 | 47 | 946.4 |
| 20260502015601 | 55 | 88 | 0.0 | 1.0 | 0.00 | 0.00 | 0.00 | 47 | 946.4 |
| 20260502015501 | 55 | 88 | 0.0 | 1.0 | 0.00 | 0.00 | 0.00 | 47 | 946.6 |
| 20260502015401 | 55 | 88 | 0.0 | 1.0 | 0.00 | 0.00 | 0.00 | 47 | 946.4 |
| 20260502015301 | 55 | 88 | 0.0 | 1.0 | 0.00 | 0.00 | 0.00 | 47 | 946.5 |
| 20260502015201 | 55 | 88 | 0.0 | 1.0 | 0.00 | 0.00 | 0.00 | 47 | 946.3 |
| 20260502015101 | 55 | 88 | 0.0 | 1.0 | 0.00 | 0.00 | 0.00 | 47 | 946.4 |
| 20260502015002 | 55 | 88 | 0.0 | 1.0 | 0.00 | 0.00 | 0.00 | 47 | 946.6 |
| 20260502014901 | 55 | 88 | 0.0 | 1.0 | 0.00 | 0.00 | 0.00 | 47 | 946.5 |
| 20260502014801 | 55 | 88 | 0.0 | 1.0 | 0.00 | 0.00 | 0.00 | 47 | 946.4 |
| 20260502014701 | 55 | 88 | 0.0 | 1.0 | 0.00 | 0.00 | 0.00 | 47 | 946.5 |
| 20260502014602 | 55 | 88 | 0.0 | 1.0 | 0.00 | 0.00 | 0.00 | 47 | 946.6 |
| 20260502014501 | 55 | 88 | 0.0 | 1.0 | 0.00 | 0.00 | 0.00 | 47 | 946.5 |
| 20260502014400 | 55 | 88 | 1.0 | 1.0 | 0.00 | 0.00 | 0.00 | 47 | 946.4 |
| 20260502014302 | 55 | 88 | 0.0 | 1.0 | 0.00 | 0.00 | 0.00 | 47 | 946.5 |
| 20260502014201 | 55 | 88 | 0.0 | 1.0 | 0.00 | 0.00 | 0.00 | 47 | 946.5 |
| 20260502014101 | 55 | 88 | 0.0 | 1.0 | 0.00 | 0.00 | 0.00 | 47 | 946.4 |
| 20260502014001 | 55 | 89 | 1.0 | 1.0 | 0.00 | 0.00 | 0.00 | 48 | 946.6 |
| 20260502013901 | 55 | 89 | 0.0 | 1.0 | 0.00 | 0.00 | 0.00 | 48 | 946.6 |
| 20260502013800 | 55 | 89 | 0.0 | 1.0 | 0.00 | 0.00 | 0.00 | 48 | 946.4 |
| 20260502013701 | 55 | 89 | 0.0 | 1.0 | 0.00 | 0.00 | 0.00 | 47 | 946.3 |
| 20260502013601 | 55 | 92 | 0.0 | 1.0 | 0.00 | 0.00 | 0.00 | 47 | 946.5 |
| 20260502013502 | 56 | 94 | 0.0 | 1.0 | 0.00 | 0.00 | 0.00 | 47 | 946.4 |
| 20260502013401 | 56 | 96 | 0.0 | 1.0 | 0.00 | 0.00 | 0.00 | 47 | 946.5 |
| 20260502013301 | 56 | 92 | 0.0 | 1.0 | 0.00 | 0.00 | 0.00 | 47 | 946.4 |
| 20260502013201 | 56 | 93 | 0.0 | 1.0 | 0.00 | 0.00 | 0.00 | 47 | 946.7 |
| 20260502013101 | 56 | 94 | 0.0 | 1.0 | 0.00 | 0.00 | 0.00 | 47 | 946.5 |
| 20260502013000 | 56 | 101 | 1.0 | 1.0 | 0.00 | 0.00 | 0.00 | 47 | 946.5 |
| 20260502012901 | 56 | 100 | 1.0 | 1.0 | 0.00 | 0.00 | 0.00 | 47 | 946.5 |
| 20260502012801 | 56 | 87 | 1.0 | 1.0 | 0.00 | 0.00 | 0.00 | 47 | 946.5 |
| 20260502012701 | 56 | 101 | 1.0 | 1.0 | 0.00 | 0.00 | 0.00 | 47 | 946.5 |
| 20260502012602 | 56 | 105 | 1.0 | 1.0 | 0.00 | 0.00 | 0.00 | 47 | 946.5 |
| 20260502012501 | 56 | 102 | 1.0 | 1.0 | 0.00 | 0.00 | 0.00 | 47 | 946.7 |
| 20260502012402 | 56 | 105 | 1.0 | 1.0 | 0.00 | 0.00 | 0.00 | 47 | 946.5 |
| 20260502012301 | 56 | 103 | 1.0 | 1.0 | 0.00 | 0.00 | 0.00 | 47 | 946.6 |
| 20260502012201 | 55 | 104 | 1.0 | 1.0 | 0.00 | 0.00 | 0.00 | 47 | 946.7 |
| 20260502012101 | 55 | 102 | 1.0 | 1.0 | 0.00 | 0.00 | 0.00 | 47 | 946.7 |
| 20260502012001 | 55 | 102 | 1.0 | 1.0 | 0.00 | 0.00 | 0.00 | 47 | 946.5 |
| 20260502011900 | 55 | 102 | 1.0 | 1.0 | 0.00 | 0.00 | 0.00 | 47 | 946.5 |
| 20260502011801 | 55 | 105 | 0.0 | 1.0 | 0.00 | 0.00 | 0.00 | 47 | 946.5 |
| 20260502011702 | 55 | 102 | 1.0 | 1.0 | 0.00 | 0.00 | 0.00 | 47 | 946.6 |
| 20260502011601 | 55 | 103 | 0.0 | 1.0 | 0.00 | 0.00 | 0.00 | 47 | 946.7 |
| 20260502011500 | 56 | 90 | 0.0 | 1.0 | 0.00 | 0.00 | 0.00 | 47 | 946.6 |
| 20260502011401 | 56 | 96 | 0.0 | 1.0 | 0.00 | 0.00 | 0.00 | 47 | 946.7 |
| 20260502011302 | 56 | 96 | 0.0 | 1.0 | 0.00 | 0.00 | 0.00 | 47 | 946.7 |
| 20260502011201 | 56 | 94 | 0.0 | 1.0 | 0.00 | 0.00 | 0.00 | 47 | 946.7 |
| 20260502011102 | 56 | 92 | 0.0 | 1.0 | 0.00 | 0.00 | 0.00 | 47 | 946.6 |
| 20260502011001 | 56 | 88 | 1.0 | 1.0 | 0.00 | 0.00 | 0.00 | 47 | 946.6 |
| 20260502010901 | 56 | 88 | 1.0 | 1.0 | 0.00 | 0.00 | 0.00 | 47 | 946.6 |
| 20260502010801 | 56 | 87 | 1.0 | 1.0 | 0.00 | 0.00 | 0.00 | 47 | 946.8 |
| 20260502010701 | 56 | 88 | 1.0 | 1.0 | 0.00 | 0.00 | 0.00 | 47 | 946.6 |
| 20260502010601 | 56 | 88 | 1.0 | 1.0 | 0.00 | 0.00 | 0.00 | 47 | 946.7 |
| 20260502010501 | 56 | 87 | 1.0 | 1.0 | 0.00 | 0.00 | 0.00 | 47 | 946.8 |
| 20260502010402 | 56 | 91 | 1.0 | 1.0 | 0.00 | 0.00 | 0.00 | 47 | 946.7 |
| 20260502010301 | 56 | 91 | 1.0 | 1.0 | 0.00 | 0.00 | 0.00 | 47 | 946.6 |
| 20260502010201 | 56 | 91 | 0.0 | 1.0 | 0.00 | 0.00 | 0.00 | 47 | 946.7 |
| 20260502010100 | 56 | 91 | 1.0 | 1.0 | 0.00 | 0.00 | 0.00 | 47 | 946.5 |
| 20260502010001 | 56 | 90 | 1.0 | 1.0 | 0.00 | 0.00 | 0.00 | 47 | 946.7 |
| 20260502005901 | 56 | 86 | 1.0 | 1.0 | 0.00 | 0.00 | 0.00 | 47 | 946.6 |
| 20260502005801 | 56 | 86 | 1.0 | 1.0 | 0.00 | 0.00 | 0.00 | 47 | 946.8 |
| 20260502005701 | 56 | 86 | 1.0 | 1.0 | 0.00 | 0.00 | 0.00 | 47 | 946.7 |
| 20260502005601 | 56 | 86 | 1.0 | 1.0 | 0.00 | 0.00 | 0.00 | 47 | 946.6 |
| 20260502005501 | 56 | 96 | 1.0 | 1.0 | 0.00 | 0.00 | 0.00 | 47 | 946.7 |
| 20260502005401 | 56 | 88 | 0.0 | 1.0 | 0.00 | 0.00 | 0.00 | 47 | 946.6 |
| 20260502005305 | 56 | 84 | 1.0 | 1.0 | 0.00 | 0.00 | 0.00 | 47 | 946.7 |
| 20260502005200 | 56 | 88 | 0.0 | 1.0 | 0.00 | 0.00 | 0.00 | 47 | 946.8 |
| 20260502005101 | 56 | 88 | 0.0 | 1.0 | 0.00 | 0.00 | 0.00 | 47 | 946.9 |
| 20260502005001 | 56 | 85 | 0.0 | 1.0 | 0.00 | 0.00 | 0.00 | 47 | 946.7 |
| 20260502004901 | 56 | 85 | 0.0 | 1.0 | 0.00 | 0.00 | 0.00 | 47 | 946.7 |
| 20260502004801 | 55 | 85 | 0.0 | 1.0 | 0.00 | 0.00 | 0.00 | 47 | 946.7 |
| 20260502004701 | 55 | 85 | 0.0 | 1.0 | 0.00 | 0.00 | 0.00 | 47 | 946.8 |
| 20260502004601 | 55 | 85 | 0.0 | 1.0 | 0.00 | 0.00 | 0.00 | 47 | 946.7 |
| 20260502004501 | 55 | 85 | 0.0 | 1.0 | 0.00 | 0.00 | 0.00 | 47 | 946.7 |
| 20260502004402 | 55 | 85 | 0.0 | 1.0 | 0.00 | 0.00 | 0.00 | 47 | 946.7 |
| 20260502004301 | 55 | 85 | 1.0 | 1.0 | 0.00 | 0.00 | 0.00 | 47 | 946.5 |
| 20260502004201 | 55 | 85 | 1.0 | 1.0 | 0.00 | 0.00 | 0.00 | 47 | 946.7 |
| 20260502004101 | 55 | 84 | 1.0 | 1.0 | 0.00 | 0.00 | 0.00 | 47 | 946.5 |
| 20260502004001 | 55 | 84 | 1.0 | 1.0 | 0.00 | 0.00 | 0.00 | 48 | 946.6 |
| 20260502003901 | 55 | 85 | 1.0 | 1.0 | 0.00 | 0.00 | 0.00 | 48 | 946.7 |
| 20260502003801 | 55 | 79 | 1.0 | 1.0 | 0.00 | 0.00 | 0.00 | 48 | 946.6 |
| 20260502003701 | 55 | 74 | 0.0 | 1.0 | 0.00 | 0.00 | 0.00 | 48 | 946.7 |
| 20260502003600 | 55 | 71 | 0.0 | 0.0 | 0.00 | 0.00 | 0.00 | 48 | 946.7 |
| 20260502003506 | 55 | 71 | 0.0 | 0.0 | 0.00 | 0.00 | 0.00 | 48 | 947.0 |
| 20260502003400 | 55 | 71 | 0.0 | 0.0 | 0.00 | 0.00 | 0.00 | 48 | 946.7 |
| 20260502003301 | 55 | 71 | 0.0 | 0.0 | 0.00 | 0.00 | 0.00 | 48 | 946.8 |
| 20260502003206 | 55 | 71 | 0.0 | 0.0 | 0.00 | 0.00 | 0.00 | 48 | 946.7 |
| 20260502003101 | 55 | 71 | 0.0 | 0.0 | 0.00 | 0.00 | 0.00 | 48 | 946.8 |
| 20260502003000 | 55 | 71 | 0.0 | 0.0 | 0.00 | 0.00 | 0.00 | 48 | 946.9 |
| 20260502002902 | 55 | 71 | 0.0 | 0.0 | 0.00 | 0.00 | 0.00 | 48 | 946.8 |
| 20260502002801 | 55 | 71 | 0.0 | 0.0 | 0.00 | 0.00 | 0.00 | 48 | 946.6 |
| 20260502002700 | 55 | 71 | 0.0 | 0.0 | 0.00 | 0.00 | 0.00 | 48 | 946.9 |
| 20260502002601 | 55 | 71 | 0.0 | 0.0 | 0.00 | 0.00 | 0.00 | 48 | 946.6 |
| 20260502002501 | 55 | 71 | 0.0 | 0.0 | 0.00 | 0.00 | 0.00 | 48 | 946.8 |
| 20260502002401 | 55 | 71 | 0.0 | 0.0 | 0.00 | 0.00 | 0.00 | 48 | 946.8 |
| 20260502002301 | 55 | 71 | 0.0 | 0.0 | 0.00 | 0.00 | 0.00 | 48 | 946.7 |
| 20260502002201 | 55 | 71 | 0.0 | 0.0 | 0.00 | 0.00 | 0.00 | 48 | 946.9 |
| 20260502002101 | 55 | 71 | 0.0 | 0.0 | 0.00 | 0.00 | 0.00 | 48 | 946.9 |
| 20260502002000 | 55 | 71 | 0.0 | 0.0 | 0.00 | 0.00 | 0.00 | 48 | 946.8 |
| 20260502001900 | 55 | 71 | 0.0 | 0.0 | 0.00 | 0.00 | 0.00 | 48 | 947.0 |
| 20260502001801 | 55 | 71 | 0.0 | 0.0 | 0.00 | 0.00 | 0.00 | 48 | 946.8 |
| 20260502001701 | 55 | 71 | 0.0 | 0.0 | 0.00 | 0.00 | 0.00 | 48 | 946.9 |
| 20260502001601 | 55 | 71 | 0.0 | 0.0 | 0.00 | 0.00 | 0.00 | 48 | 946.9 |
| 20260502001501 | 55 | 71 | 0.0 | 0.0 | 0.00 | 0.00 | 0.00 | 48 | 947.0 |
| 20260502001401 | 55 | 71 | 0.0 | 0.0 | 0.00 | 0.00 | 0.00 | 48 | 947.0 |
| 20260502001301 | 55 | 71 | 0.0 | 0.0 | 0.00 | 0.00 | 0.00 | 48 | 947.0 |
| 20260502001201 | 55 | 71 | 0.0 | 0.0 | 0.00 | 0.00 | 0.00 | 48 | 947.0 |
| 20260502001101 | 55 | 71 | 0.0 | 0.0 | 0.00 | 0.00 | 0.00 | 48 | 947.0 |
| 20260502001002 | 55 | 71 | 0.0 | 0.0 | 0.00 | 0.00 | 0.00 | 48 | 946.9 |
| 20260502000901 | 55 | 71 | 0.0 | 0.0 | 0.00 | 0.00 | 0.00 | 47 | 946.8 |
| 20260502000801 | 55 | 71 | 0.0 | 1.0 | 0.00 | 0.00 | 0.00 | 47 | 946.8 |
| 20260502000701 | 55 | 71 | 0.0 | 1.0 | 0.00 | 0.00 | 0.00 | 47 | 946.9 |
| 20260502000601 | 55 | 70 | 0.0 | 1.0 | 0.00 | 0.00 | 0.00 | 47 | 946.9 |
| 20260502000501 | 55 | 70 | 1.0 | 1.0 | 0.00 | 0.00 | 0.00 | 47 | 946.8 |
| 20260502000402 | 55 | 70 | 1.0 | 1.0 | 0.00 | 0.00 | 0.00 | 47 | 946.8 |
| 20260502000302 | 55 | 66 | 1.0 | 1.0 | 0.00 | 0.00 | 0.00 | 47 | 946.7 |
| 20260502000201 | 55 | 66 | 1.0 | 1.0 | 0.00 | 0.00 | 0.00 | 47 | 946.8 |
| 20260502000101 | 55 | 64 | 0.0 | 1.0 | 0.00 | 0.00 | 0.00 | 47 | 946.8 |
| 20260502000002 | 55 | 62 | 0.0 | 1.0 | 0.00 | 0.00 | 0.00 | 47 | 946.7 |
| 20260501235901 | 55 | 59 | 1.0 | 1.0 | 0.00 | 0.00 | 0.00 | 47 | 946.8 |
| 20260501235801 | 55 | 60 | 0.0 | 1.0 | 0.00 | 0.00 | 0.00 | 47 | 946.7 |
| 20260501235701 | 55 | 59 | 0.0 | 1.0 | 0.00 | 0.00 | 0.00 | 47 | 946.8 |
| 20260501235601 | 55 | 59 | 0.0 | 1.0 | 0.00 | 0.00 | 0.00 | 48 | 946.7 |
| 20260501235501 | 55 | 68 | 0.0 | 1.0 | 0.00 | 0.00 | 0.00 | 48 | 947.0 |
| 20260501235401 | 55 | 68 | 0.0 | 1.0 | 0.00 | 0.00 | 0.00 | 48 | 946.8 |
| 20260501235301 | 55 | 68 | 0.0 | 0.0 | 0.00 | 0.00 | 0.00 | 48 | 947.1 |
| 20260501235201 | 55 | 68 | 0.0 | 0.0 | 0.00 | 0.00 | 0.00 | 48 | 946.9 |
| 20260501235105 | 55 | 68 | 0.0 | 0.0 | 0.00 | 0.00 | 0.00 | 48 | 946.9 |
| 20260501235001 | 55 | 68 | 0.0 | 0.0 | 0.00 | 0.00 | 0.00 | 48 | 947.0 |
| 20260501234901 | 55 | 68 | 0.0 | 0.0 | 0.00 | 0.00 | 0.00 | 48 | 946.9 |
| 20260501234801 | 55 | 68 | 0.0 | 0.0 | 0.00 | 0.00 | 0.00 | 48 | 946.8 |
| 20260501234701 | 55 | 68 | 0.0 | 0.0 | 0.00 | 0.00 | 0.00 | 48 | 946.8 |
| 20260501234601 | 55 | 65 | 0.0 | 1.0 | 0.00 | 0.00 | 0.00 | 48 | 946.8 |
| 20260501234502 | 55 | 65 | 0.0 | 1.0 | 0.00 | 0.00 | 0.00 | 48 | 946.9 |
| 20260501234401 | 55 | 65 | 0.0 | 1.0 | 0.00 | 0.00 | 0.00 | 48 | 946.8 |
| 20260501234301 | 55 | 65 | 0.0 | 1.0 | 0.00 | 0.00 | 0.00 | 48 | 946.7 |
| 20260501234201 | 55 | 65 | 0.0 | 1.0 | 0.00 | 0.00 | 0.00 | 48 | 946.8 |
| 20260501234101 | 55 | 65 | 0.0 | 1.0 | 0.00 | 0.00 | 0.00 | 48 | 947.0 |
| 20260501234001 | 55 | 65 | 0.0 | 1.0 | 0.00 | 0.00 | 0.00 | 48 | 946.9 |
| 20260501233901 | 55 | 65 | 0.0 | 1.0 | 0.00 | 0.00 | 0.00 | 48 | 946.9 |
| 20260501233801 | 55 | 65 | 0.0 | 0.0 | 0.00 | 0.00 | 0.00 | 48 | 946.8 |
| 20260501233701 | 55 | 65 | 0.0 | 0.0 | 0.00 | 0.00 | 0.00 | 48 | 946.8 |
| 20260501233600 | 55 | 65 | 0.0 | 0.0 | 0.00 | 0.00 | 0.00 | 48 | 947.0 |
| 20260501233501 | 55 | 65 | 0.0 | 0.0 | 0.00 | 0.00 | 0.00 | 48 | 947.1 |
| 20260501233402 | 55 | 65 | 0.0 | 0.0 | 0.00 | 0.00 | 0.00 | 48 | 946.9 |
| 20260501233301 | 55 | 65 | 0.0 | 0.0 | 0.00 | 0.00 | 0.00 | 48 | 947.0 |
| 20260501233201 | 56 | 65 | 0.0 | 0.0 | 0.00 | 0.00 | 0.00 | 48 | 946.9 |
| 20260501233101 | 56 | 65 | 0.0 | 0.0 | 0.00 | 0.00 | 0.00 | 47 | 947.0 |
| 20260501233002 | 56 | 65 | 0.0 | 0.0 | 0.00 | 0.00 | 0.00 | 47 | 947.1 |
| 20260501232901 | 56 | 65 | 0.0 | 0.0 | 0.00 | 0.00 | 0.00 | 47 | 946.9 |
| 20260501232801 | 56 | 65 | 0.0 | 1.0 | 0.00 | 0.00 | 0.00 | 47 | 946.9 |
| 20260501232701 | 56 | 65 | 0.0 | 1.0 | 0.00 | 0.00 | 0.00 | 47 | 946.9 |
| 20260501232601 | 56 | 65 | 0.0 | 1.0 | 0.00 | 0.00 | 0.00 | 47 | 946.9 |
| 20260501232501 | 56 | 64 | 0.0 | 1.0 | 0.00 | 0.00 | 0.00 | 47 | 947.0 |
| 20260501232401 | 56 | 65 | 0.0 | 1.0 | 0.00 | 0.00 | 0.00 | 47 | 947.0 |
| 20260501232305 | 56 | 65 | 0.0 | 1.0 | 0.00 | 0.00 | 0.00 | 47 | 946.9 |
| 20260501232202 | 56 | 64 | 0.0 | 1.0 | 0.00 | 0.00 | 0.00 | 47 | 946.9 |
| 20260501232101 | 56 | 64 | 0.0 | 1.0 | 0.00 | 0.00 | 0.00 | 47 | 946.9 |
| 20260501232001 | 56 | 64 | 0.0 | 1.0 | 0.00 | 0.00 | 0.00 | 47 | 947.2 |
| 20260501231900 | 56 | 68 | 0.0 | 1.0 | 0.00 | 0.00 | 0.00 | 47 | 947.0 |
| 20260501231801 | 56 | 69 | 0.0 | 1.0 | 0.00 | 0.00 | 0.00 | 46 | 947.0 |
| 20260501231701 | 56 | 65 | 0.0 | 1.0 | 0.00 | 0.00 | 0.00 | 46 | 947.2 |
| 20260501231601 | 56 | 69 | 1.0 | 1.0 | 0.00 | 0.00 | 0.00 | 46 | 947.0 |
| 20260501231501 | 56 | 80 | 0.0 | 1.0 | 0.00 | 0.00 | 0.00 | 46 | 947.2 |
| 20260501231401 | 56 | 65 | 0.0 | 1.0 | 0.00 | 0.00 | 0.00 | 47 | 947.2 |
| 20260501231301 | 56 | 71 | 0.0 | 1.0 | 0.00 | 0.00 | 0.00 | 47 | 947.0 |
| 20260501231201 | 56 | 68 | 0.0 | 1.0 | 0.00 | 0.00 | 0.00 | 47 | 947.0 |
| 20260501231101 | 56 | 68 | 0.0 | 1.0 | 0.00 | 0.00 | 0.00 | 47 | 947.0 |
| 20260501231002 | 56 | 68 | 0.0 | 1.0 | 0.00 | 0.00 | 0.00 | 47 | 947.0 |
| 20260501230901 | 56 | 65 | 1.0 | 1.0 | 0.00 | 0.00 | 0.00 | 47 | 947.2 |
| 20260501230801 | 56 | 76 | 0.0 | 1.0 | 0.00 | 0.00 | 0.00 | 47 | 947.1 |
| 20260501230701 | 56 | 74 | 0.0 | 1.0 | 0.00 | 0.00 | 0.00 | 47 | 947.0 |
| 20260501230601 | 56 | 72 | 0.0 | 1.0 | 0.00 | 0.00 | 0.00 | 47 | 947.1 |
| 20260501230501 | 56 | 78 | 0.0 | 1.0 | 0.00 | 0.00 | 0.00 | 47 | 947.2 |
| 20260501230401 | 56 | 59 | 1.0 | 1.0 | 0.00 | 0.00 | 0.00 | 47 | 947.2 |
| 20260501230301 | 56 | 72 | 0.0 | 1.0 | 0.00 | 0.00 | 0.00 | 47 | 947.1 |
| 20260501230201 | 56 | 65 | 0.0 | 1.0 | 0.00 | 0.00 | 0.00 | 47 | 947.3 |
| 20260501230101 | 56 | 71 | 0.0 | 1.0 | 0.00 | 0.00 | 0.00 | 46 | 947.1 |
| 20260501230001 | 56 | 65 | 0.0 | 1.0 | 0.00 | 0.00 | 0.00 | 46 | 947.2 |
| 20260501225901 | 56 | 73 | 0.0 | 1.0 | 0.00 | 0.00 | 0.00 | 46 | 947.0 |
| 20260501225800 | 56 | 66 | 0.0 | 1.0 | 0.00 | 0.00 | 0.00 | 46 | 947.1 |
| 20260501225701 | 56 | 66 | 1.0 | 1.0 | 0.00 | 0.00 | 0.00 | 46 | 947.1 |
| 20260501225601 | 56 | 66 | 0.0 | 1.0 | 0.00 | 0.00 | 0.00 | 46 | 947.2 |
| 20260501225501 | 57 | 66 | 0.0 | 1.0 | 0.00 | 0.00 | 0.00 | 46 | 947.1 |
| 20260501225401 | 57 | 66 | 0.0 | 1.0 | 0.00 | 0.00 | 0.00 | 46 | 947.0 |
| 20260501225301 | 57 | 65 | 0.0 | 1.0 | 0.00 | 0.00 | 0.00 | 46 | 947.2 |
| 20260501225205 | 57 | 70 | 0.0 | 0.0 | 0.00 | 0.00 | 0.00 | 46 | 947.1 |
| 20260501225101 | 57 | 64 | 0.0 | 0.0 | 0.00 | 0.00 | 0.00 | 46 | 947.1 |
| 20260501225001 | 56 | 64 | 0.0 | 0.0 | 0.00 | 0.00 | 0.00 | 46 | 947.2 |
| 20260501224901 | 56 | 64 | 0.0 | 1.0 | 0.00 | 0.00 | 0.00 | 46 | 947.1 |
| 20260501224801 | 56 | 64 | 0.0 | 1.0 | 0.00 | 0.00 | 0.00 | 46 | 947.1 |
| 20260501224701 | 56 | 65 | 0.0 | 1.0 | 0.00 | 0.00 | 0.00 | 46 | 947.1 |
| 20260501224600 | 56 | 74 | 0.0 | 1.0 | 0.00 | 0.00 | 0.00 | 46 | 946.9 |
| 20260501224501 | 57 | 68 | 0.0 | 0.0 | 0.00 | 0.00 | 0.00 | 46 | 947.1 |
| 20260501224401 | 57 | 68 | 0.0 | 1.0 | 0.00 | 0.00 | 0.00 | 46 | 947.1 |
| 20260501224301 | 57 | 68 | 0.0 | 1.0 | 0.00 | 0.00 | 0.00 | 46 | 947.1 |
| 20260501224201 | 57 | 66 | 0.0 | 1.0 | 0.00 | 0.00 | 0.00 | 46 | 947.1 |
| 20260501224101 | 57 | 66 | 1.0 | 1.0 | 0.00 | 0.00 | 0.00 | 46 | 947.1 |
| 20260501224001 | 57 | 82 | 0.0 | 1.0 | 0.00 | 0.00 | 0.00 | 47 | 947.0 |
| 20260501223901 | 57 | 66 | 0.0 | 1.0 | 0.00 | 0.00 | 0.00 | 46 | 947.1 |
| 20260501223801 | 57 | 69 | 1.0 | 1.0 | 0.00 | 0.00 | 0.00 | 46 | 946.9 |
| 20260501223702 | 57 | 68 | 0.0 | 1.0 | 0.00 | 0.00 | 0.00 | 47 | 947.0 |
| 20260501223601 | 57 | 66 | 1.0 | 1.0 | 0.00 | 0.00 | 0.00 | 47 | 947.1 |
| 20260501223501 | 57 | 64 | 0.0 | 1.0 | 0.00 | 0.00 | 0.00 | 47 | 947.2 |
| 20260501223401 | 57 | 71 | 0.0 | 1.0 | 0.00 | 0.00 | 0.00 | 46 | 947.3 |
| 20260501223301 | 57 | 70 | 0.0 | 1.0 | 0.00 | 0.00 | 0.00 | 46 | 947.1 |
| 20260501223201 | 57 | 70 | 0.0 | 1.0 | 0.00 | 0.00 | 0.00 | 46 | 947.2 |
| 20260501223101 | 57 | 70 | 0.0 | 1.0 | 0.00 | 0.00 | 0.00 | 46 | 947.2 |
| 20260501223001 | 57 | 70 | 0.0 | 1.0 | 0.00 | 0.00 | 0.00 | 46 | 947.2 |
| 20260501222901 | 57 | 70 | 0.0 | 1.0 | 0.00 | 0.00 | 0.00 | 46 | 947.2 |
| 20260501222801 | 57 | 70 | 0.0 | 1.0 | 0.00 | 0.00 | 0.00 | 46 | 947.2 |
| 20260501222701 | 57 | 70 | 0.0 | 1.0 | 0.00 | 0.00 | 0.00 | 46 | 947.0 |
| 20260501222601 | 57 | 70 | 0.0 | 1.0 | 0.00 | 0.00 | 0.00 | 46 | 947.0 |
| 20260501222501 | 57 | 70 | 0.0 | 1.0 | 0.00 | 0.00 | 0.00 | 46 | 947.2 |
| 20260501222401 | 57 | 70 | 0.0 | 1.0 | 0.00 | 0.00 | 0.00 | 45 | 947.3 |
| 20260501222301 | 57 | 70 | 0.0 | 1.0 | 0.00 | 0.00 | 0.00 | 45 | 947.3 |
| 20260501222201 | 57 | 71 | 0.0 | 1.0 | 0.00 | 0.00 | 0.00 | 45 | 947.2 |
| 20260501222100 | 57 | 71 | 0.0 | 1.0 | 0.00 | 0.00 | 0.00 | 45 | 947.3 |
| 20260501222001 | 57 | 69 | 0.0 | 0.0 | 0.00 | 0.00 | 0.00 | 45 | 947.3 |
| 20260501221903 | 57 | 69 | 0.0 | 1.0 | 0.00 | 0.00 | 0.00 | 45 | 947.3 |
| 20260501221801 | 57 | 69 | 0.0 | 1.0 | 0.00 | 0.00 | 0.00 | 45 | 947.3 |
| 20260501221701 | 57 | 69 | 0.0 | 1.0 | 0.00 | 0.00 | 0.00 | 45 | 947.1 |
| 20260501221601 | 57 | 69 | 0.0 | 1.0 | 0.00 | 0.00 | 0.00 | 46 | 947.3 |
| 20260501221501 | 57 | 69 | 0.0 | 1.0 | 0.00 | 0.00 | 0.00 | 46 | 947.3 |
| 20260501221401 | 57 | 69 | 0.0 | 1.0 | 0.00 | 0.00 | 0.00 | 46 | 947.3 |
| 20260501221301 | 57 | 69 | 0.0 | 0.0 | 0.00 | 0.00 | 0.00 | 46 | 947.4 |
| 20260501221201 | 57 | 69 | 0.0 | 0.0 | 0.00 | 0.00 | 0.00 | 46 | 947.4 |
| 20260501221100 | 57 | 69 | 0.0 | 0.0 | 0.00 | 0.00 | 0.00 | 46 | 947.1 |
| 20260501221000 | 57 | 69 | 0.0 | 0.0 | 0.00 | 0.00 | 0.00 | 46 | 947.5 |
| 20260501220900 | 57 | 69 | 0.0 | 0.0 | 0.00 | 0.00 | 0.00 | 46 | 947.5 |
| 20260501220801 | 57 | 69 | 0.0 | 0.0 | 0.00 | 0.00 | 0.00 | 46 | 947.3 |
| 20260501220701 | 57 | 69 | 0.0 | 0.0 | 0.00 | 0.00 | 0.00 | 46 | 947.5 |
| 20260501220600 | 57 | 69 | 0.0 | 0.0 | 0.00 | 0.00 | 0.00 | 46 | 947.3 |
| 20260501220501 | 57 | 69 | 0.0 | 0.0 | 0.00 | 0.00 | 0.00 | 46 | 947.4 |
| 20260501220400 | 57 | 69 | 0.0 | 0.0 | 0.00 | 0.00 | 0.00 | 46 | 947.3 |
| 20260501220302 | 57 | 69 | 0.0 | 0.0 | 0.00 | 0.00 | 0.00 | 46 | 947.3 |
| 20260501220201 | 57 | 69 | 0.0 | 0.0 | 0.00 | 0.00 | 0.00 | 46 | 947.3 |
| 20260501220100 | 57 | 69 | 0.0 | 0.0 | 0.00 | 0.00 | 0.00 | 45 | 947.3 |
| 20260501220000 | 57 | 69 | 0.0 | 0.0 | 0.00 | 0.00 | 0.00 | 46 | 947.2 |
| 20260501215901 | 57 | 69 | 0.0 | 0.0 | 0.00 | 0.00 | 0.00 | 45 | 947.4 |
| 20260501215801 | 57 | 69 | 0.0 | 1.0 | 0.00 | 0.00 | 0.00 | 46 | 947.3 |
| 20260501215701 | 57 | 73 | 0.0 | 1.0 | 0.00 | 0.00 | 0.00 | 46 | 947.1 |
| 20260501215601 | 57 | 73 | 0.0 | 1.0 | 0.00 | 0.00 | 0.00 | 46 | 947.3 |
| 20260501215501 | 57 | 66 | 0.0 | 1.0 | 0.00 | 0.00 | 0.00 | 46 | 947.2 |
| 20260501215401 | 57 | 66 | 0.0 | 1.0 | 0.00 | 0.00 | 0.00 | 46 | 947.4 |
| 20260501215305 | 57 | 66 | 0.0 | 1.0 | 0.00 | 0.00 | 0.00 | 45 | 947.3 |
| 20260501215201 | 57 | 74 | 0.0 | 1.0 | 0.00 | 0.00 | 0.00 | 46 | 947.3 |
| 20260501215101 | 57 | 63 | 0.0 | 1.0 | 0.00 | 0.00 | 0.00 | 46 | 947.3 |
| 20260501215001 | 57 | 70 | 0.0 | 1.0 | 0.00 | 0.00 | 0.00 | 46 | 947.3 |
| 20260501214901 | 57 | 59 | 1.0 | 1.0 | 0.00 | 0.00 | 0.00 | 45 | 947.2 |
| 20260501214800 | 57 | 66 | 1.0 | 1.0 | 0.00 | 0.00 | 0.00 | 45 | 947.3 |
| 20260501214701 | 57 | 66 | 0.0 | 1.0 | 0.00 | 0.00 | 0.00 | 46 | 947.2 |
| 20260501214601 | 57 | 66 | 0.0 | 1.0 | 0.00 | 0.00 | 0.00 | 45 | 947.1 |
| 20260501214501 | 57 | 66 | 0.0 | 1.0 | 0.00 | 0.00 | 0.00 | 45 | 947.4 |
| 20260501214401 | 57 | 62 | 0.0 | 1.0 | 0.00 | 0.00 | 0.00 | 45 | 947.2 |
| 20260501214300 | 57 | 64 | 0.0 | 0.0 | 0.00 | 0.00 | 0.00 | 45 | 947.4 |
| 20260501214201 | 57 | 64 | 0.0 | 1.0 | 0.00 | 0.00 | 0.00 | 45 | 947.1 |
| 20260501214101 | 57 | 63 | 0.0 | 1.0 | 0.00 | 0.00 | 0.00 | 45 | 947.4 |
| 20260501214001 | 57 | 78 | 0.0 | 1.0 | 0.00 | 0.00 | 0.00 | 46 | 947.3 |
| 20260501213902 | 57 | 85 | 0.0 | 1.0 | 0.00 | 0.00 | 0.00 | 46 | 947.3 |
| 20260501213800 | 57 | 90 | 0.0 | 1.0 | 0.00 | 0.00 | 0.00 | 45 | 947.1 |
| 20260501213701 | 57 | 85 | 0.0 | 1.0 | 0.00 | 0.00 | 0.00 | 45 | 947.2 |
| 20260501213601 | 57 | 75 | 0.0 | 1.0 | 0.00 | 0.00 | 0.00 | 46 | 947.3 |
| 20260501213503 | 57 | 85 | 1.0 | 1.0 | 0.00 | 0.00 | 0.00 | 45 | 947.2 |
| 20260501213401 | 57 | 78 | 1.0 | 1.0 | 0.00 | 0.00 | 0.00 | 45 | 947.5 |
| 20260501213301 | 57 | 85 | 1.0 | 1.0 | 0.00 | 0.00 | 0.00 | 45 | 947.4 |
| 20260501213201 | 57 | 84 | 0.0 | 1.0 | 0.00 | 0.00 | 0.00 | 46 | 947.2 |
| 20260501213101 | 57 | 86 | 1.0 | 1.0 | 0.00 | 0.00 | 0.00 | 45 | 947.2 |
| 20260501213001 | 57 | 86 | 1.0 | 1.0 | 0.00 | 0.00 | 0.00 | 45 | 947.1 |
| 20260501212901 | 57 | 79 | 1.0 | 1.0 | 0.00 | 0.00 | 0.00 | 45 | 947.4 |
| 20260501212801 | 57 | 82 | 0.0 | 1.0 | 0.00 | 0.00 | 0.00 | 45 | 947.1 |
| 20260501212701 | 57 | 85 | 0.0 | 1.0 | 0.00 | 0.00 | 0.00 | 45 | 947.3 |
| 20260501212601 | 57 | 73 | 1.0 | 1.0 | 0.00 | 0.00 | 0.00 | 45 | 947.4 |
| 20260501212501 | 57 | 90 | 1.0 | 1.0 | 0.00 | 0.00 | 0.00 | 46 | 947.3 |
| 20260501212401 | 57 | 69 | 0.0 | 1.0 | 0.00 | 0.00 | 0.00 | 46 | 947.3 |
| 20260501212305 | 57 | 75 | 0.0 | 1.0 | 0.00 | 0.00 | 0.00 | 46 | 947.1 |
| 20260501212200 | 57 | 80 | 1.0 | 1.0 | 0.00 | 0.00 | 0.00 | 46 | 947.2 |
| 20260501212100 | 57 | 75 | 1.0 | 1.0 | 0.00 | 0.00 | 0.00 | 46 | 947.3 |
| 20260501212001 | 57 | 63 | 0.0 | 1.0 | 0.00 | 0.00 | 0.00 | 46 | 947.1 |
| 20260501211900 | 57 | 91 | 1.0 | 1.0 | 0.00 | 0.00 | 0.00 | 46 | 947.2 |
| 20260501211801 | 57 | 86 | 1.0 | 1.0 | 0.00 | 0.00 | 0.00 | 46 | 947.2 |
| 20260501211701 | 57 | 74 | 1.0 | 1.0 | 0.00 | 0.00 | 0.00 | 46 | 947.2 |
| 20260501211600 | 57 | 86 | 1.0 | 1.0 | 0.00 | 0.00 | 0.00 | 46 | 947.3 |
| 20260501211501 | 57 | 73 | 0.0 | 1.0 | 0.00 | 0.00 | 0.00 | 46 | 947.3 |
| 20260501211400 | 57 | 72 | 0.0 | 1.0 | 0.00 | 0.00 | 0.00 | 46 | 947.2 |
| 20260501211300 | 57 | 61 | 0.0 | 1.0 | 0.00 | 0.00 | 0.00 | 45 | 947.2 |
| 20260501211201 | 57 | 59 | 0.0 | 1.0 | 0.00 | 0.00 | 0.00 | 45 | 947.0 |
| 20260501211101 | 57 | 62 | 0.0 | 1.0 | 0.00 | 0.00 | 0.00 | 45 | 947.3 |
| 20260501211001 | 57 | 60 | 0.0 | 1.0 | 0.00 | 0.00 | 0.00 | 45 | 947.2 |
| 20260501210901 | 57 | 60 | 0.0 | 1.0 | 0.00 | 0.00 | 0.00 | 45 | 947.2 |
| 20260501210801 | 57 | 61 | 1.0 | 1.0 | 0.00 | 0.00 | 0.00 | 45 | 947.3 |
| 20260501210701 | 57 | 91 | 0.0 | 1.0 | 0.00 | 0.00 | 0.00 | 45 | 947.3 |
| 20260501210601 | 57 | 67 | 0.0 | 1.0 | 0.00 | 0.00 | 0.00 | 45 | 947.5 |
| 20260501210501 | 57 | 62 | 1.0 | 1.0 | 0.00 | 0.00 | 0.00 | 45 | 947.2 |
| 20260501210401 | 57 | 59 | 1.0 | 1.0 | 0.00 | 0.00 | 0.00 | 45 | 947.3 |
| 20260501210301 | 57 | 56 | 1.0 | 1.0 | 0.00 | 0.00 | 0.00 | 45 | 947.4 |
| 20260501210201 | 57 | 49 | 1.0 | 1.0 | 0.00 | 0.00 | 0.00 | 45 | 947.3 |
| 20260501210001 | 57 | 49 | 1.0 | 1.0 | 0.00 | 0.00 | 0.00 | 45 | 947.2 |
| 20260501205901 | 57 | 48 | 1.0 | 1.0 | 0.00 | 0.00 | 0.00 | 45 | 947.2 |
| 20260501205801 | 57 | 59 | 1.0 | 1.0 | 0.00 | 0.00 | 0.00 | 46 | 947.5 |
| 20260501205701 | 57 | 49 | 1.0 | 1.0 | 0.00 | 0.00 | 0.00 | 46 | 947.2 |
| 20260501205601 | 57 | 55 | 1.0 | 1.0 | 0.00 | 0.00 | 0.00 | 46 | 947.3 |
| 20260501205501 | 57 | 48 | 1.0 | 1.0 | 0.00 | 0.00 | 0.00 | 46 | 947.2 |
| 20260501205401 | 57 | 54 | 1.0 | 1.0 | 0.00 | 0.00 | 0.00 | 46 | 947.5 |
| 20260501205301 | 57 | 43 | 1.0 | 1.0 | 0.00 | 0.00 | 0.00 | 46 | 947.4 |
| 20260501205201 | 57 | 47 | 1.0 | 1.0 | 0.00 | 0.00 | 0.00 | 46 | 947.3 |
| 20260501205101 | 56 | 53 | 1.0 | 1.0 | 0.00 | 0.00 | 0.00 | 46 | 947.2 |
| 20260501205001 | 56 | 52 | 1.0 | 1.0 | 0.00 | 0.00 | 0.00 | 46 | 947.0 |
| 20260501204901 | 56 | 52 | 1.0 | 1.0 | 0.00 | 0.00 | 0.00 | 46 | 947.4 |
| 20260501204801 | 56 | 46 | 1.0 | 1.0 | 0.00 | 0.00 | 0.00 | 46 | 947.3 |
| 20260501204701 | 56 | 48 | 1.0 | 1.0 | 0.00 | 0.00 | 0.00 | 46 | 947.1 |
| 20260501204601 | 56 | 45 | 1.0 | 1.0 | 0.00 | 0.00 | 0.00 | 46 | 947.3 |
| 20260501204501 | 56 | 48 | 1.0 | 1.0 | 0.00 | 0.00 | 0.00 | 46 | 947.4 |
| 20260501204401 | 56 | 44 | 1.0 | 1.0 | 0.00 | 0.00 | 0.00 | 46 | 947.2 |
| 20260501204301 | 56 | 53 | 1.0 | 1.0 | 0.00 | 0.00 | 0.00 | 46 | 947.4 |
| 20260501204201 | 56 | 49 | 1.0 | 2.0 | 0.00 | 0.00 | 0.00 | 46 | 947.2 |
| 20260501204100 | 56 | 44 | 1.0 | 2.0 | 0.00 | 0.00 | 0.00 | 46 | 947.2 |
| 20260501204001 | 56 | 41 | 1.0 | 1.0 | 0.00 | 0.00 | 0.00 | 46 | 947.2 |
| 20260501203901 | 56 | 42 | 1.0 | 2.0 | 0.00 | 0.00 | 0.00 | 46 | 947.2 |
| 20260501203801 | 56 | 50 | 1.0 | 2.0 | 0.00 | 0.00 | 0.00 | 46 | 947.3 |
| 20260501203701 | 56 | 42 | 1.0 | 1.0 | 0.00 | 0.00 | 0.00 | 46 | 947.2 |
| 20260501203601 | 56 | 48 | 1.0 | 1.0 | 0.00 | 0.00 | 0.00 | 46 | 947.3 |
| 20260501203501 | 57 | 44 | 1.0 | 2.0 | 0.00 | 0.00 | 0.00 | 46 | 947.4 |
| 20260501203401 | 57 | 40 | 1.0 | 2.0 | 0.00 | 0.00 | 0.00 | 46 | 947.2 |
| 20260501203301 | 57 | 44 | 1.0 | 2.0 | 0.00 | 0.00 | 0.00 | 46 | 947.4 |
| 20260501203201 | 57 | 36 | 1.0 | 1.0 | 0.00 | 0.00 | 0.00 | 46 | 947.2 |
| 20260501203100 | 57 | 39 | 1.0 | 2.0 | 0.00 | 0.00 | 0.00 | 46 | 947.3 |
| 20260501203001 | 57 | 39 | 1.0 | 2.0 | 0.00 | 0.00 | 0.00 | 46 | 947.2 |
| 20260501202901 | 57 | 36 | 1.0 | 2.0 | 0.00 | 0.00 | 0.00 | 45 | 947.3 |
| 20260501202801 | 57 | 38 | 1.0 | 1.0 | 0.00 | 0.00 | 0.00 | 46 | 947.4 |
| 20260501202701 | 57 | 32 | 1.0 | 1.0 | 0.00 | 0.00 | 0.00 | 45 | 947.3 |
| 20260501202605 | 57 | 34 | 1.0 | 1.0 | 0.00 | 0.00 | 0.00 | 46 | 947.4 |
| 20260501202500 | 57 | 32 | 1.0 | 1.0 | 0.00 | 0.00 | 0.00 | 46 | 947.2 |
| 20260501202402 | 57 | 25 | 1.0 | 1.0 | 0.00 | 0.00 | 0.00 | 45 | 947.2 |
| 20260501202301 | 57 | 31 | 1.0 | 1.0 | 0.00 | 0.00 | 0.00 | 46 | 947.2 |
| 20260501202201 | 57 | 27 | 1.0 | 1.0 | 0.00 | 0.00 | 0.00 | 46 | 947.3 |
| 20260501202101 | 57 | 31 | 1.0 | 1.0 | 0.00 | 0.00 | 0.00 | 46 | 947.2 |
| 20260501202001 | 57 | 38 | 1.0 | 1.0 | 0.00 | 0.00 | 0.00 | 46 | 947.3 |
| 20260501201901 | 57 | 41 | 1.0 | 2.0 | 0.00 | 0.00 | 0.00 | 46 | 947.1 |
| 20260501201801 | 57 | 42 | 1.0 | 1.0 | 0.00 | 0.00 | 0.00 | 45 | 947.2 |
| 20260501201701 | 57 | 36 | 1.0 | 1.0 | 0.00 | 0.00 | 0.00 | 45 | 947.3 |
| 20260501201601 | 57 | 26 | 1.0 | 1.0 | 0.00 | 0.00 | 0.00 | 45 | 947.1 |
| 20260501201501 | 57 | 33 | 1.0 | 1.0 | 0.00 | 0.00 | 0.00 | 45 | 947.1 |
| 20260501201401 | 57 | 30 | 1.0 | 1.0 | 0.00 | 0.00 | 0.00 | 45 | 947.2 |
| 20260501201301 | 57 | 30 | 1.0 | 1.0 | 0.00 | 0.00 | 0.00 | 45 | 947.3 |
| 20260501201201 | 57 | 30 | 1.0 | 1.0 | 0.00 | 0.00 | 0.00 | 45 | 947.2 |
| 20260501201101 | 57 | 27 | 1.0 | 1.0 | 0.00 | 0.00 | 0.00 | 45 | 947.4 |
| 20260501201000 | 57 | 31 | 1.0 | 1.0 | 0.00 | 0.00 | 0.00 | 45 | 947.3 |
| 20260501200901 | 57 | 21 | 1.0 | 1.0 | 0.00 | 0.00 | 0.00 | 45 | 947.1 |
| 20260501200801 | 57 | 21 | 1.0 | 1.0 | 0.00 | 0.00 | 0.00 | 45 | 947.1 |
| 20260501200701 | 57 | 11 | 1.0 | 2.0 | 0.00 | 0.00 | 0.00 | 45 | 947.1 |
| 20260501200601 | 57 | 25 | 1.0 | 2.0 | 0.00 | 0.00 | 0.00 | 45 | 947.2 |
| 20260501200501 | 57 | 17 | 1.0 | 2.0 | 0.00 | 0.00 | 0.00 | 45 | 947.0 |
| 20260501200401 | 57 | 16 | 1.0 | 2.0 | 0.00 | 0.00 | 0.00 | 45 | 947.1 |
| 20260501200300 | 57 | 17 | 1.0 | 2.0 | 0.00 | 0.00 | 0.00 | 45 | 947.2 |
| 20260501200201 | 57 | 22 | 1.0 | 1.0 | 0.00 | 0.00 | 0.00 | 45 | 947.2 |
| 20260501200000 | 58 | 27 | 1.0 | 2.0 | 0.00 | 0.00 | 0.00 | 45 | 947.4 |
| 20260501195900 | 58 | 19 | 1.0 | 2.0 | 0.00 | 0.00 | 0.00 | 45 | 947.2 |
| 20260501195801 | 57 | 17 | 1.0 | 2.0 | 0.00 | 0.00 | 0.00 | 45 | 947.2 |
| 20260501195701 | 57 | 13 | 1.0 | 2.0 | 0.00 | 0.00 | 0.00 | 45 | 947.4 |
| 20260501195601 | 57 | 26 | 1.0 | 2.0 | 0.00 | 0.00 | 0.00 | 45 | 947.0 |
| 20260501195501 | 57 | 3 | 1.0 | 2.0 | 0.00 | 0.00 | 0.00 | 45 | 947.1 |
| 20260501195401 | 57 | 25 | 1.0 | 2.0 | 0.00 | 0.00 | 0.00 | 45 | 947.2 |
| 20260501195300 | 57 | 16 | 1.0 | 2.0 | 0.00 | 0.00 | 0.00 | 45 | 947.1 |
| 20260501195201 | 57 | 11 | 1.0 | 2.0 | 0.00 | 0.00 | 0.00 | 45 | 947.2 |
| 20260501195101 | 57 | 22 | 1.0 | 2.0 | 0.00 | 0.00 | 0.00 | 45 | 947.1 |
| 20260501195001 | 57 | 23 | 1.0 | 2.0 | 0.00 | 0.00 | 0.00 | 45 | 947.1 |
| 20260501194900 | 57 | 18 | 1.0 | 2.0 | 0.00 | 0.00 | 0.00 | 45 | 947.2 |
| 20260501194806 | 57 | 13 | 1.0 | 2.0 | 0.00 | 0.00 | 0.00 | 45 | 947.3 |
| 20260501194700 | 57 | 20 | 1.0 | 2.0 | 0.00 | 0.00 | 0.00 | 45 | 947.2 |
| 20260501194601 | 57 | 25 | 1.0 | 2.0 | 0.00 | 0.00 | 0.00 | 45 | 947.1 |
| 20260501194501 | 57 | 22 | 1.0 | 2.0 | 0.00 | 0.00 | 0.00 | 45 | 947.1 |
| 20260501194401 | 57 | 16 | 1.0 | 2.0 | 0.00 | 0.00 | 0.00 | 45 | 947.1 |
| 20260501194301 | 57 | 7 | 1.0 | 2.0 | 0.00 | 0.00 | 0.00 | 45 | 947.2 |
| 20260501194201 | 57 | 9 | 1.0 | 2.0 | 0.00 | 0.00 | 0.00 | 45 | 947.1 |
| 20260501194101 | 57 | 19 | 1.0 | 2.0 | 0.00 | 0.00 | 0.00 | 45 | 947.1 |
| 20260501194001 | 57 | 11 | 1.0 | 1.0 | 0.00 | 0.00 | 0.00 | 45 | 947.1 |
| 20260501193901 | 57 | 14 | 1.0 | 1.0 | 0.00 | 0.00 | 0.00 | 45 | 947.1 |
| 20260501193801 | 57 | 13 | 1.0 | 1.0 | 0.00 | 0.00 | 0.00 | 45 | 947.1 |
| 20260501193701 | 57 | 18 | 1.0 | 1.0 | 0.00 | 0.00 | 0.00 | 45 | 947.0 |
| 20260501193602 | 57 | 17 | 1.0 | 1.0 | 0.00 | 0.00 | 0.00 | 45 | 947.1 |
| 20260501193501 | 57 | 11 | 1.0 | 1.0 | 0.00 | 0.00 | 0.00 | 45 | 947.1 |
| 20260501193401 | 57 | 16 | 1.0 | 1.0 | 0.00 | 0.00 | 0.00 | 45 | 947.0 |
| 20260501193301 | 57 | 10 | 1.0 | 1.0 | 0.00 | 0.00 | 0.00 | 45 | 947.1 |
| 20260501193201 | 57 | 4 | 1.0 | 1.0 | 0.00 | 0.00 | 0.00 | 45 | 947.1 |
| 20260501193101 | 57 | 9 | 1.0 | 1.0 | 0.00 | 0.00 | 0.00 | 45 | 947.0 |
| 20260501193001 | 57 | 15 | 1.0 | 1.0 | 0.00 | 0.00 | 0.00 | 45 | 947.1 |
| 20260501192902 | 57 | 16 | 1.0 | 1.0 | 0.00 | 0.00 | 0.00 | 45 | 947.2 |
| 20260501192801 | 57 | 11 | 1.0 | 1.0 | 0.00 | 0.00 | 0.00 | 45 | 947.1 |
| 20260501192702 | 57 | 9 | 1.0 | 1.0 | 0.00 | 0.00 | 0.00 | 45 | 947.0 |
| 20260501192602 | 57 | 10 | 1.0 | 1.0 | 0.00 | 0.00 | 0.00 | 45 | 947.0 |
| 20260501192501 | 57 | 5 | 1.0 | 1.0 | 0.00 | 0.00 | 0.00 | 45 | 947.3 |
| 20260501192403 | 57 | 13 | 1.0 | 1.0 | 0.00 | 0.00 | 0.00 | 45 | 947.2 |
| 20260501192306 | 57 | 14 | 1.0 | 1.0 | 0.00 | 0.00 | 0.00 | 45 | 947.2 |
| 20260501192201 | 57 | 11 | 1.0 | 1.0 | 0.00 | 0.00 | 0.00 | 45 | 947.0 |
| 20260501192100 | 57 | 9 | 1.0 | 1.0 | 0.00 | 0.00 | 0.00 | 45 | 947.1 |
| 20260501192001 | 58 | 3 | 1.0 | 1.0 | 0.00 | 0.00 | 0.00 | 45 | 947.1 |
| 20260501191900 | 58 | 8 | 1.0 | 1.0 | 0.00 | 0.00 | 0.00 | 45 | 947.2 |
| 20260501191801 | 58 | 355 | 1.0 | 1.0 | 0.00 | 0.00 | 0.00 | 45 | 947.1 |
| 20260501191701 | 58 | 0 | 1.0 | 1.0 | 0.00 | 0.00 | 0.00 | 45 | 947.0 |
| 20260501191601 | 58 | 355 | 1.0 | 1.0 | 0.00 | 0.00 | 0.00 | 45 | 947.1 |
| 20260501191501 | 58 | 355 | 1.0 | 1.0 | 0.00 | 0.00 | 0.00 | 45 | 947.2 |
| 20260501191401 | 58 | 359 | 1.0 | 1.0 | 0.00 | 0.00 | 0.00 | 45 | 947.3 |
| 20260501191301 | 58 | 355 | 1.0 | 1.0 | 0.00 | 0.00 | 0.00 | 45 | 947.0 |
| 20260501191201 | 58 | 354 | 1.0 | 1.0 | 0.00 | 0.00 | 0.00 | 45 | 947.1 |
| 20260501191101 | 58 | 358 | 1.0 | 1.0 | 0.00 | 0.00 | 0.00 | 45 | 947.2 |
| 20260501191001 | 58 | 351 | 1.0 | 1.0 | 0.00 | 0.00 | 0.00 | 44 | 947.0 |
| 20260501190901 | 58 | 347 | 1.0 | 2.0 | 0.00 | 0.00 | 0.00 | 44 | 947.3 |
| 20260501190801 | 58 | 349 | 1.0 | 2.0 | 0.00 | 0.00 | 0.00 | 44 | 946.9 |
| 20260501190701 | 58 | 349 | 1.0 | 2.0 | 0.00 | 0.00 | 0.00 | 44 | 946.9 |
| 20260501190601 | 58 | 354 | 1.0 | 1.0 | 0.00 | 0.00 | 0.00 | 44 | 947.1 |
| 20260501190501 | 58 | 358 | 1.0 | 2.0 | 0.00 | 0.00 | 0.00 | 45 | 947.1 |
| 20260501190401 | 58 | 346 | 1.0 | 2.0 | 0.00 | 0.00 | 0.00 | 45 | 946.9 |
| 20260501190301 | 58 | 356 | 1.0 | 1.0 | 0.00 | 0.00 | 0.00 | 45 | 947.0 |
| 20260501190200 | 58 | 349 | 1.0 | 1.0 | 0.00 | 0.00 | 0.00 | 45 | 947.0 |
| 20260501190101 | 58 | 348 | 1.0 | 2.0 | 0.00 | 0.00 | 0.00 | 45 | 947.1 |
| 20260501190001 | 58 | 351 | 1.0 | 2.0 | 0.00 | 0.00 | 0.00 | 44 | 947.0 |
| 20260501185901 | 58 | 344 | 1.0 | 2.0 | 0.00 | 0.00 | 0.00 | 44 | 947.0 |
| 20260501185801 | 58 | 345 | 1.0 | 2.0 | 0.00 | 0.00 | 0.00 | 44 | 946.9 |
| 20260501185701 | 58 | 348 | 1.0 | 2.0 | 0.00 | 0.00 | 0.00 | 44 | 947.3 |
| 20260501185601 | 58 | 345 | 1.0 | 2.0 | 0.00 | 0.00 | 0.00 | 44 | 947.0 |
| 20260501185501 | 58 | 341 | 2.0 | 2.0 | 0.00 | 0.00 | 0.00 | 44 | 947.0 |
| 20260501185402 | 59 | 341 | 1.0 | 2.0 | 0.00 | 0.00 | 0.00 | 44 | 946.9 |
| 20260501185301 | 59 | 344 | 1.0 | 2.0 | 0.00 | 0.00 | 0.00 | 44 | 947.0 |
| 20260501185201 | 59 | 344 | 1.0 | 1.0 | 0.00 | 0.00 | 0.00 | 44 | 947.1 |
| 20260501185103 | 59 | 349 | 1.0 | 2.0 | 0.00 | 0.00 | 0.00 | 44 | 946.9 |
| 20260501185001 | 59 | 348 | 1.0 | 1.0 | 0.00 | 0.00 | 0.00 | 44 | 947.2 |
| 20260501184901 | 59 | 349 | 1.0 | 2.0 | 0.00 | 0.00 | 0.00 | 44 | 947.0 |
| 20260501184805 | 59 | 346 | 1.0 | 2.0 | 0.00 | 0.00 | 0.00 | 44 | 947.1 |
| 20260501184701 | 59 | 340 | 1.0 | 2.0 | 0.00 | 0.00 | 0.00 | 44 | 947.2 |
| 20260501184601 | 59 | 344 | 1.0 | 2.0 | 0.00 | 0.00 | 0.00 | 44 | 946.9 |
| 20260501184501 | 59 | 354 | 1.0 | 2.0 | 0.00 | 0.00 | 0.00 | 44 | 946.9 |
| 20260501184401 | 59 | 346 | 1.0 | 1.0 | 0.00 | 0.00 | 0.00 | 44 | 947.1 |
| 20260501184301 | 59 | 348 | 1.0 | 1.0 | 0.00 | 0.00 | 0.00 | 44 | 947.0 |
| 20260501184201 | 59 | 351 | 1.0 | 1.0 | 0.00 | 0.00 | 0.00 | 44 | 947.1 |
| 20260501184101 | 59 | 8 | 1.0 | 2.0 | 0.00 | 0.00 | 0.00 | 44 | 947.0 |
| 20260501184001 | 59 | 341 | 2.0 | 2.0 | 0.00 | 0.00 | 0.00 | 44 | 947.2 |
| 20260501183901 | 59 | 334 | 1.0 | 2.0 | 0.00 | 0.00 | 0.00 | 44 | 947.1 |
| 20260501183801 | 59 | 323 | 1.0 | 2.0 | 0.00 | 0.00 | 0.00 | 44 | 947.1 |
| 20260501183701 | 59 | 344 | 1.0 | 1.0 | 0.00 | 0.00 | 0.00 | 45 | 947.0 |
| 20260501183600 | 59 | 335 | 1.0 | 2.0 | 0.00 | 0.00 | 0.00 | 45 | 946.9 |
| 20260501183500 | 59 | 343 | 1.0 | 2.0 | 0.00 | 0.00 | 0.00 | 44 | 947.1 |
| 20260501183401 | 59 | 338 | 1.0 | 2.0 | 0.00 | 0.00 | 0.00 | 44 | 947.2 |
| 20260501183301 | 59 | 329 | 1.0 | 2.0 | 0.00 | 0.00 | 0.00 | 44 | 946.9 |
| 20260501183202 | 59 | 337 | 1.0 | 2.0 | 0.00 | 0.00 | 0.00 | 44 | 947.1 |
| 20260501183101 | 59 | 333 | 1.0 | 2.0 | 0.00 | 0.00 | 0.00 | 44 | 947.0 |
| 20260501183000 | 59 | 334 | 1.0 | 2.0 | 0.00 | 0.00 | 0.00 | 44 | 947.0 |
| 20260501182900 | 59 | 335 | 1.0 | 1.0 | 0.00 | 0.00 | 0.00 | 44 | 947.0 |
| 20260501182801 | 59 | 335 | 1.0 | 1.0 | 0.00 | 0.00 | 0.00 | 44 | 947.1 |
| 20260501182701 | 59 | 338 | 1.0 | 1.0 | 0.00 | 0.00 | 0.00 | 44 | 946.9 |
| 20260501182601 | 59 | 342 | 1.0 | 1.0 | 0.00 | 0.00 | 0.00 | 44 | 946.9 |
| 20260501182501 | 59 | 339 | 1.0 | 1.0 | 0.00 | 0.00 | 0.00 | 45 | 947.0 |
| 20260501182401 | 59 | 342 | 1.0 | 1.0 | 0.00 | 0.00 | 0.00 | 45 | 946.9 |
| 20260501182305 | 59 | 342 | 1.0 | 1.0 | 0.00 | 0.00 | 0.00 | 44 | 946.9 |
| 20260501182201 | 59 | 348 | 1.0 | 1.0 | 0.00 | 0.00 | 0.00 | 45 | 946.8 |
| 20260501182101 | 59 | 344 | 1.0 | 2.0 | 0.00 | 0.00 | 0.00 | 45 | 947.0 |
| 20260501182000 | 59 | 346 | 1.0 | 2.0 | 0.00 | 0.00 | 0.00 | 44 | 947.0 |
| 20260501181901 | 59 | 338 | 1.0 | 1.0 | 0.00 | 0.00 | 0.00 | 44 | 946.9 |
| 20260501181801 | 59 | 336 | 1.0 | 1.0 | 0.00 | 0.00 | 0.00 | 44 | 946.8 |